Time,TemperatureF,DewpointF,PressureIn,WindDirection,WindDirectionDegrees,WindSpeedMPH,WindSpeedGustMPH,Humidity,HourlyPrecipIn,Conditions,Clouds,dailyrainin,SoftwareType,DateUTC
2013-06-24 06:36:00,75.7,21.5,29.71,West,270,10.5,10.5,13,0.00,,SKC,0.00,VWS V14.00,2013-06-24 13:36:00,
2013-06-24 06:37:00,75.7,21.5,29.71,West,270,10.5,10.5,13,0.00,,SKC,0.00,VWS V14.00,2013-06-24 13:37:00,
2013-06-24 06:42:00,54.9,27.0,29.71,East,90,3.4,10.5,34,0.00,,SKC,0.00,VWS V14.00,2013-06-24 13:42:00,
2013-06-24 06:45:00,54.9,27.0,29.71,East,90,4.3,10.5,34,0.00,,SKC,0.00,VWS V14.00,2013-06-24 13:45:00,
2013-06-24 06:47:00,55.4,26.0,29.71,SE,135,2.9,4.3,32,0.00,,SKC,0.00,VWS V14.00,2013-06-24 13:47:00,
2013-06-24 06:48:00,55.4,26.0,29.71,SE,135,2.9,4.3,32,0.00,,SKC,0.00,VWS V14.00,2013-06-24 13:48:00,
2013-06-24 06:50:00,55.9,25.8,29.71,SE,135,1.1,4.3,31,0.00,,SKC,0.00,VWS V14.00,2013-06-24 13:50:00,
2013-06-24 06:52:00,56.1,25.9,29.71,SSE,158,0.0,1.1,31,0.00,,SKC,0.00,VWS V14.00,2013-06-24 13:52:00,
2013-06-24 06:53:00,56.1,25.9,29.71,SSE,158,0.0,1.1,31,0.00,,SKC,0.00,VWS V14.00,2013-06-24 13:53:00,
2013-06-24 06:54:00,56.1,25.9,29.71,SSE,158,0.0,1.1,31,0.00,,SKC,0.00,VWS V14.00,2013-06-24 13:54:00,
2013-06-24 06:55:00,56.3,26.1,29.71,SSE,158,0.0,1.1,31,0.00,,SKC,0.00,VWS V14.00,2013-06-24 13:55:00,
2013-06-24 06:57:00,56.5,25.4,29.71,SE,135,0.0,0.0,30,0.00,,SKC,0.00,VWS V14.00,2013-06-24 13:57:00,
2013-06-24 06:58:00,56.5,25.4,29.71,SE,135,0.0,0.0,30,0.00,,SKC,0.00,VWS V14.00,2013-06-24 13:58:00,
2013-06-24 06:59:00,56.5,25.4,29.71,SE,135,0.0,0.0,30,0.00,,SKC,0.00,VWS V14.00,2013-06-24 13:59:00,
2013-06-24 07:02:00,56.5,25.4,29.71,SSW,202,0.0,0.0,30,0.00,,SKC,0.00,VWS V14.00,2013-06-24 14:02:00,
2013-06-24 07:04:00,56.5,25.4,29.74,West,270,0.0,0.0,30,0.00,,SKC,0.00,VWS V14.00,2013-06-24 14:04:00,
2013-06-24 07:05:00,57.4,26.2,29.74,West,270,4.3,4.3,30,0.00,,SKC,0.00,VWS V14.00,2013-06-24 14:05:00,
2013-06-24 07:07:00,57.6,26.4,29.74,West,270,2.5,4.5,30,0.00,,SKC,0.00,VWS V14.00,2013-06-24 14:07:00,
2013-06-24 07:09:00,57.6,26.4,29.74,WNW,292,2.7,4.5,30,0.00,,SKC,0.00,VWS V14.00,2013-06-24 14:09:00,
2013-06-24 07:10:00,57.7,26.5,29.74,WNW,292,2.7,4.5,30,0.00,,SKC,0.00,VWS V14.00,2013-06-24 14:10:00,
2013-06-24 07:14:00,58.1,26.0,29.74,NW,315,0.0,2.7,29,0.00,,SKC,0.00,VWS V14.00,2013-06-24 14:14:00,
2013-06-24 07:15:00,58.1,26.0,29.74,NW,315,0.0,2.7,29,0.00,,SKC,0.00,VWS V14.00,2013-06-24 14:15:00,
2013-06-24 07:19:00,58.8,25.8,29.71,NW,315,0.0,1.3,28,0.00,,SKC,0.00,VWS V14.00,2013-06-24 14:19:00,
2013-06-24 07:20:00,58.8,25.8,29.71,NW,315,0.0,1.3,28,0.00,,SKC,0.00,VWS V14.00,2013-06-24 14:20:00,
2013-06-24 07:24:00,59.4,25.4,29.71,East,90,0.0,0.0,27,0.00,,SKC,0.00,VWS V14.00,2013-06-24 14:24:00,
2013-06-24 07:25:00,59.4,25.4,29.71,East,90,0.0,0.0,27,0.00,,SKC,0.00,VWS V14.00,2013-06-24 14:25:00,
2013-06-24 07:30:00,59.4,25.4,29.71,SE,135,0.0,0.0,27,0.00,,SKC,0.00,VWS V14.00,2013-06-24 14:30:00,
2013-06-24 07:35:00,59.2,25.2,29.71,SE,135,1.6,2.5,27,0.00,,SKC,0.00,VWS V14.00,2013-06-24 14:35:00,
2013-06-24 07:36:00,59.2,25.2,29.71,SE,135,2.0,2.5,27,0.00,,SKC,0.00,VWS V14.00,2013-06-24 14:36:00,
2013-06-24 07:40:00,59.4,24.5,29.71,SE,135,0.0,2.5,26,0.00,,SKC,0.00,VWS V14.00,2013-06-24 14:40:00,
2013-06-24 07:41:00,59.5,24.6,29.71,South,180,1.6,1.6,26,0.00,,SKC,0.00,VWS V14.00,2013-06-24 14:41:00,
2013-06-24 07:45:00,59.7,24.8,29.71,SE,135,0.0,0.0,26,0.00,,SKC,0.00,VWS V14.00,2013-06-24 14:45:00,
2013-06-24 07:46:00,59.7,24.8,29.71,SE,135,0.0,0.0,26,0.00,,SKC,0.00,VWS V14.00,2013-06-24 14:46:00,
2013-06-24 07:47:00,59.7,24.8,29.71,SE,135,0.0,0.0,26,0.00,,SKC,0.00,VWS V14.00,2013-06-24 14:47:00,
2013-06-24 07:50:00,59.9,25.0,29.71,SSW,202,0.9,2.0,26,0.00,,SKC,0.00,VWS V14.00,2013-06-24 14:50:00,
2013-06-24 07:51:00,59.9,25.0,29.71,SSW,202,0.9,0.9,26,0.00,,SKC,0.00,VWS V14.00,2013-06-24 14:51:00,
2013-06-24 07:52:00,59.9,25.0,29.71,SSW,202,0.0,0.9,26,0.00,,SKC,0.00,VWS V14.00,2013-06-24 14:52:00,
2013-06-24 07:55:00,60.3,25.3,29.71,SSW,202,1.3,2.7,26,0.00,,SKC,0.00,VWS V14.00,2013-06-24 14:55:00,
2013-06-24 07:56:00,60.3,25.3,29.71,SSW,202,2.5,2.5,26,0.00,,SKC,0.00,VWS V14.00,2013-06-24 14:56:00,
2013-06-24 07:57:00,60.3,25.3,29.71,SSW,202,2.5,2.5,26,0.00,,SKC,0.00,VWS V14.00,2013-06-24 14:57:00,
2013-06-24 07:58:00,60.3,25.3,29.71,SSW,202,1.3,2.5,26,0.00,,SKC,0.00,VWS V14.00,2013-06-24 14:58:00,
2013-06-24 08:00:00,60.6,24.6,29.71,South,180,1.6,2.5,25,0.00,,SKC,0.00,VWS V14.00,2013-06-24 15:00:00,
2013-06-24 08:01:00,60.6,24.6,29.71,South,180,0.0,1.6,25,0.00,,SKC,0.00,VWS V14.00,2013-06-24 15:01:00,
2013-06-24 08:02:00,60.8,24.8,29.71,South,180,0.0,1.6,25,0.00,,SKC,0.00,VWS V14.00,2013-06-24 15:02:00,
2013-06-24 08:03:00,60.8,24.8,29.71,South,180,0.0,1.6,25,0.00,,SKC,0.00,VWS V14.00,2013-06-24 15:03:00,
2013-06-24 08:05:00,61.0,24.9,29.71,South,180,0.0,2.5,25,0.00,,SKC,0.00,VWS V14.00,2013-06-24 15:05:00,
2013-06-24 08:07:00,61.3,25.2,29.71,South,180,0.0,0.0,25,0.00,,SKC,0.00,VWS V14.00,2013-06-24 15:07:00,
2013-06-24 08:08:00,61.3,25.2,29.71,South,180,0.0,0.0,25,0.00,,SKC,0.00,VWS V14.00,2013-06-24 15:08:00,
2013-06-24 08:10:00,61.7,25.5,29.71,South,180,0.0,0.0,25,0.00,,SKC,0.00,VWS V14.00,2013-06-24 15:10:00,
2013-06-24 08:12:00,62.1,25.9,29.71,South,180,0.0,0.0,25,0.00,,SKC,0.00,VWS V14.00,2013-06-24 15:12:00,
2013-06-24 08:13:00,62.1,25.9,29.71,South,180,0.0,0.0,25,0.00,,SKC,0.00,VWS V14.00,2013-06-24 15:13:00,
2013-06-24 08:14:00,62.1,25.9,29.71,South,180,0.0,0.0,25,0.00,,SKC,0.00,VWS V14.00,2013-06-24 15:14:00,
2013-06-24 08:17:00,63.3,25.9,29.71,SW,225,1.1,1.3,24,0.00,,SKC,0.00,VWS V14.00,2013-06-24 15:17:00,
2013-06-24 08:18:00,63.5,26.1,29.71,SW,225,2.5,2.5,24,0.00,,SKC,0.00,VWS V14.00,2013-06-24 15:18:00,
2013-06-24 08:20:00,63.5,26.1,29.71,SW,225,2.7,3.1,24,0.00,,SKC,0.00,VWS V14.00,2013-06-24 15:20:00,
2013-06-24 08:22:00,63.9,26.4,29.71,SW,225,0.0,3.1,24,0.00,,SKC,0.00,VWS V14.00,2013-06-24 15:22:00,
2013-06-24 08:23:00,64.6,26.0,29.71,SW,225,0.0,3.1,23,0.00,,SKC,0.00,VWS V14.00,2013-06-24 15:23:00,
2013-06-24 08:25:00,65.1,26.4,29.71,SW,225,1.6,3.1,23,0.00,,SKC,0.00,VWS V14.00,2013-06-24 15:25:00,
2013-06-24 08:26:00,65.1,26.4,29.71,SW,225,0.0,1.6,23,0.00,,SKC,0.00,VWS V14.00,2013-06-24 15:26:00,
2013-06-24 08:28:00,65.1,26.4,29.74,SW,225,0.0,1.6,23,0.00,,SKC,0.00,VWS V14.00,2013-06-24 15:28:00,
2013-06-24 08:29:00,65.1,26.4,29.74,SW,225,0.0,1.6,23,0.00,,SKC,0.00,VWS V14.00,2013-06-24 15:29:00,
2013-06-24 08:30:00,65.1,26.4,29.74,SW,225,0.9,1.6,23,0.00,,SKC,0.00,VWS V14.00,2013-06-24 15:30:00,
2013-06-24 08:31:00,65.7,26.9,29.74,SW,225,0.0,0.9,23,0.00,,SKC,0.00,VWS V14.00,2013-06-24 15:31:00,
2013-06-24 08:33:00,66.0,27.2,29.74,SW,225,0.0,1.6,23,0.00,,SKC,0.00,VWS V14.00,2013-06-24 15:33:00,
2013-06-24 08:34:00,66.4,27.5,29.74,SW,225,0.0,1.6,23,0.00,,SKC,0.00,VWS V14.00,2013-06-24 15:34:00,
2013-06-24 08:35:00,66.6,27.6,29.74,SW,225,0.0,1.6,23,0.00,,SKC,0.00,VWS V14.00,2013-06-24 15:35:00,
2013-06-24 08:36:00,66.7,26.7,29.74,SW,225,0.0,0.0,22,0.00,,SKC,0.00,VWS V14.00,2013-06-24 15:36:00,
2013-06-24 08:40:00,66.6,26.6,29.74,SW,225,0.0,0.0,22,0.00,,SKC,0.00,VWS V14.00,2013-06-24 15:40:00,
2013-06-24 08:41:00,66.7,26.7,29.74,SW,225,0.0,0.0,22,0.00,,SKC,0.00,VWS V14.00,2013-06-24 15:41:00,
2013-06-24 08:45:00,66.9,26.9,29.74,ENE,68,0.0,0.0,22,0.00,,SKC,0.00,VWS V14.00,2013-06-24 15:45:00,
2013-06-24 08:46:00,67.1,27.0,29.74,ENE,68,0.0,0.0,22,0.00,,SKC,0.00,VWS V14.00,2013-06-24 15:46:00,
2013-06-24 08:50:00,67.1,24.7,29.74,ENE,68,0.0,0.0,20,0.00,,SKC,0.00,VWS V14.00,2013-06-24 15:50:00,
2013-06-24 08:51:00,67.1,24.7,29.74,ENE,68,0.0,0.0,20,0.00,,SKC,0.00,VWS V14.00,2013-06-24 15:51:00,
2013-06-24 08:52:00,67.1,24.7,29.74,ENE,68,0.0,0.0,20,0.00,,SKC,0.00,VWS V14.00,2013-06-24 15:52:00,
2013-06-24 08:55:00,66.6,24.3,29.74,East,90,2.9,2.9,20,0.00,,SKC,0.00,VWS V14.00,2013-06-24 15:55:00,
2013-06-24 08:56:00,66.4,24.1,29.74,ENE,68,3.1,3.6,20,0.00,,SKC,0.00,VWS V14.00,2013-06-24 15:56:00,
2013-06-24 08:57:00,66.4,24.1,29.74,East,90,3.6,3.8,20,0.00,,SKC,0.00,VWS V14.00,2013-06-24 15:57:00,
2013-06-24 09:00:00,66.0,23.8,29.74,East,90,4.0,4.0,20,0.00,,SKC,0.00,VWS V14.00,2013-06-24 16:00:00,
2013-06-24 09:01:00,66.0,23.8,29.74,East,90,3.6,4.0,20,0.00,,SKC,0.00,VWS V14.00,2013-06-24 16:01:00,
2013-06-24 09:02:00,66.0,23.8,29.74,East,90,3.4,4.0,20,0.00,,SKC,0.00,VWS V14.00,2013-06-24 16:02:00,
2013-06-24 09:05:00,66.4,24.1,29.74,South,180,0.0,1.3,20,0.00,,SKC,0.00,VWS V14.00,2013-06-24 16:05:00,
2013-06-24 09:06:00,66.4,24.1,29.74,South,180,1.1,1.3,20,0.00,,SKC,0.00,VWS V14.00,2013-06-24 16:06:00,
2013-06-24 09:07:00,66.4,24.1,29.74,SE,135,2.9,2.9,20,0.00,,SKC,0.00,VWS V14.00,2013-06-24 16:07:00,
2013-06-24 09:10:00,66.7,24.4,29.74,SE,135,3.6,3.6,20,0.00,,SKC,0.00,VWS V14.00,2013-06-24 16:10:00,
2013-06-24 09:11:00,66.7,24.4,29.74,SE,135,3.6,3.6,20,0.00,,SKC,0.00,VWS V14.00,2013-06-24 16:11:00,
2013-06-24 09:13:00,67.6,25.2,29.74,ESE,112,1.1,3.6,20,0.00,,SKC,0.00,VWS V14.00,2013-06-24 16:13:00,
2013-06-24 09:15:00,68.0,25.5,29.74,SSE,158,5.4,5.4,20,0.00,,SKC,0.00,VWS V14.00,2013-06-24 16:15:00,
2013-06-24 09:16:00,67.6,25.2,29.74,SSE,158,4.9,5.4,20,0.00,,SKC,0.00,VWS V14.00,2013-06-24 16:16:00,
2013-06-24 09:17:00,67.6,25.2,29.74,SSE,158,4.9,5.4,20,0.00,,SKC,0.00,VWS V14.00,2013-06-24 16:17:00,
2013-06-24 09:19:00,67.3,24.9,29.74,SW,225,3.4,5.6,20,0.00,,SKC,0.00,VWS V14.00,2013-06-24 16:19:00,
2013-06-24 09:20:00,67.3,24.9,29.74,West,270,7.4,7.4,20,0.00,,SKC,0.00,VWS V14.00,2013-06-24 16:20:00,
2013-06-24 09:22:00,66.9,24.6,29.74,SW,225,5.4,7.6,20,0.00,,SKC,0.00,VWS V14.00,2013-06-24 16:22:00,
2013-06-24 09:23:00,66.9,24.6,29.74,SW,225,5.4,7.6,20,0.00,,SKC,0.00,VWS V14.00,2013-06-24 16:23:00,
2013-06-24 09:25:00,66.7,24.4,29.74,SW,225,6.5,7.8,20,0.00,,SKC,0.00,VWS V14.00,2013-06-24 16:25:00,
2013-06-24 09:27:00,66.7,24.4,29.74,South,180,6.3,7.6,20,0.00,,SKC,0.00,VWS V14.00,2013-06-24 16:27:00,
2013-06-24 09:28:00,66.6,24.3,29.74,South,180,7.8,8.7,20,0.00,,SKC,0.00,VWS V14.00,2013-06-24 16:28:00,
2013-06-24 09:30:00,66.6,24.3,29.74,SSW,202,4.0,8.7,20,0.00,,SKC,0.00,VWS V14.00,2013-06-24 16:30:00,
2013-06-24 09:32:00,66.6,24.3,29.74,SW,225,8.5,8.7,20,0.00,,SKC,0.00,VWS V14.00,2013-06-24 16:32:00,
2013-06-24 09:33:00,66.6,24.3,29.74,SW,225,7.2,8.7,20,0.00,,SKC,0.00,VWS V14.00,2013-06-24 16:33:00,
2013-06-24 09:35:00,66.6,24.3,29.74,SSW,202,7.8,9.6,20,0.00,,SKC,0.00,VWS V14.00,2013-06-24 16:35:00,
2013-06-24 09:38:00,66.6,24.3,29.74,SW,225,6.5,9.6,20,0.00,,SKC,0.00,VWS V14.00,2013-06-24 16:38:00,
2013-06-24 09:40:00,66.4,24.1,29.74,SW,225,7.8,9.6,20,0.00,,SKC,0.00,VWS V14.00,2013-06-24 16:40:00,
2013-06-24 09:43:00,66.4,24.1,29.71,SW,225,10.7,12.3,20,0.00,,SKC,0.00,VWS V14.00,2013-06-24 16:43:00,
2013-06-24 09:45:00,66.4,24.1,29.71,SW,225,11.0,11.0,20,0.00,,SKC,0.00,VWS V14.00,2013-06-24 16:45:00,
2013-06-24 09:48:00,66.4,24.1,29.71,SW,225,10.7,12.8,20,0.00,,SKC,0.00,VWS V14.00,2013-06-24 16:48:00,
2013-06-24 09:50:00,66.4,24.1,29.71,SW,225,10.7,12.8,20,0.00,,SKC,0.00,VWS V14.00,2013-06-24 16:50:00,
2013-06-24 09:53:00,66.6,24.3,29.71,SW,225,8.1,12.5,20,0.00,,SKC,0.00,VWS V14.00,2013-06-24 16:53:00,
2013-06-24 09:54:00,66.6,24.3,29.71,SW,225,7.6,12.5,20,0.00,,SKC,0.00,VWS V14.00,2013-06-24 16:54:00,
2013-06-24 09:55:00,66.6,24.3,29.71,SW,225,8.1,12.5,20,0.00,,SKC,0.00,VWS V14.00,2013-06-24 16:55:00,
2013-06-24 09:56:00,66.6,24.3,29.71,SW,225,10.5,10.7,20,0.00,,SKC,0.00,VWS V14.00,2013-06-24 16:56:00,
2013-06-24 09:58:00,66.6,24.3,29.71,SW,225,8.7,11.2,20,0.00,,SKC,0.00,VWS V14.00,2013-06-24 16:58:00,
2013-06-24 09:59:00,66.6,24.3,29.74,SSW,202,9.8,11.2,20,0.00,,SKC,0.00,VWS V14.00,2013-06-24 16:59:00,
2013-06-24 10:00:00,66.7,24.4,29.74,WSW,248,7.6,11.2,20,0.00,,SKC,0.00,VWS V14.00,2013-06-24 17:00:00,
2013-06-24 10:01:00,66.7,24.4,29.74,WSW,248,7.6,11.2,20,0.00,,SKC,0.00,VWS V14.00,2013-06-24 17:01:00,
2013-06-24 10:03:00,66.7,24.4,29.74,WSW,248,8.7,8.7,20,0.00,,SKC,0.00,VWS V14.00,2013-06-24 17:03:00,
2013-06-24 10:04:00,66.7,24.4,29.74,SW,225,8.1,8.7,20,0.00,,SKC,0.00,VWS V14.00,2013-06-24 17:04:00,
2013-06-24 10:05:00,66.9,24.6,29.74,SW,225,9.6,9.6,20,0.00,,SKC,0.00,VWS V14.00,2013-06-24 17:05:00,
2013-06-24 10:06:00,66.9,24.6,29.74,SW,225,10.3,10.3,20,0.00,,SKC,0.00,VWS V14.00,2013-06-24 17:06:00,
2013-06-24 10:09:00,66.9,24.6,29.74,SW,225,7.8,10.3,20,0.00,,SKC,0.00,VWS V14.00,2013-06-24 17:09:00,
2013-06-24 10:10:00,67.3,24.9,29.74,SW,225,7.8,7.8,20,0.00,,SKC,0.00,VWS V14.00,2013-06-24 17:10:00,
2013-06-24 10:11:00,67.3,24.9,29.74,SW,225,6.7,8.1,20,0.00,,SKC,0.00,VWS V14.00,2013-06-24 17:11:00,
2013-06-24 10:14:00,67.5,25.0,29.74,SW,225,11.0,11.0,20,0.00,,SKC,0.00,VWS V14.00,2013-06-24 17:14:00,
2013-06-24 10:15:00,67.5,25.0,29.74,SW,225,8.7,12.5,20,0.00,,SKC,0.00,VWS V14.00,2013-06-24 17:15:00,
2013-06-24 10:16:00,67.5,25.0,29.74,SW,225,4.0,8.7,20,0.00,,SKC,0.00,VWS V14.00,2013-06-24 17:16:00,
2013-06-24 10:19:00,68.0,25.5,29.74,WSW,248,8.1,10.5,20,0.00,,SKC,0.00,VWS V14.00,2013-06-24 17:19:00,
2013-06-24 10:20:00,68.0,25.5,29.74,SW,225,6.3,10.5,20,0.00,,SKC,0.00,VWS V14.00,2013-06-24 17:20:00,
2013-06-24 10:21:00,68.4,25.8,29.74,SW,225,8.5,8.5,20,0.00,,SKC,0.00,VWS V14.00,2013-06-24 17:21:00,
2013-06-24 10:22:00,68.4,25.8,29.74,WSW,248,8.1,9.2,20,0.00,,SKC,0.00,VWS V14.00,2013-06-24 17:22:00,
2013-06-24 10:25:00,68.2,25.6,29.74,West,270,6.5,11.9,20,0.00,,SKC,0.00,VWS V14.00,2013-06-24 17:25:00,
2013-06-24 10:26:00,68.2,25.6,29.74,West,270,5.8,6.5,20,0.00,,SKC,0.00,VWS V14.00,2013-06-24 17:26:00,
2013-06-24 10:28:00,68.4,28.1,29.74,West,270,6.5,10.3,22,0.00,,SKC,0.00,VWS V14.00,2013-06-24 17:28:00,
2013-06-24 10:30:00,68.4,28.1,29.74,West,270,6.3,10.3,22,0.00,,SKC,0.00,VWS V14.00,2013-06-24 17:30:00,
2013-06-24 10:31:00,68.4,28.1,29.74,West,270,8.7,8.7,22,0.00,,SKC,0.00,VWS V14.00,2013-06-24 17:31:00,
2013-06-24 10:32:00,68.4,28.1,29.74,West,270,8.7,8.7,22,0.00,,SKC,0.00,VWS V14.00,2013-06-24 17:32:00,
2013-06-24 10:33:00,68.4,28.1,29.74,West,270,8.7,8.7,22,0.00,,SKC,0.00,VWS V14.00,2013-06-24 17:33:00,
2013-06-24 10:35:00,68.2,27.9,29.74,West,270,7.6,8.7,22,0.00,,SKC,0.00,VWS V14.00,2013-06-24 17:35:00,
2013-06-24 10:36:00,68.4,28.1,29.74,West,270,10.1,10.1,22,0.00,,SKC,0.00,VWS V14.00,2013-06-24 17:36:00,
2013-06-24 10:37:00,68.2,27.9,29.74,West,270,8.5,10.1,22,0.00,,SKC,0.00,VWS V14.00,2013-06-24 17:37:00,
2013-06-24 10:38:00,68.4,28.1,29.74,West,270,8.1,10.1,22,0.00,,SKC,0.00,VWS V14.00,2013-06-24 17:38:00,
2013-06-24 10:41:00,68.5,28.2,29.74,West,270,6.3,10.1,22,0.00,,SKC,0.00,VWS V14.00,2013-06-24 17:41:00,
2013-06-24 10:42:00,68.7,28.4,29.74,West,270,7.2,10.1,22,0.00,,SKC,0.00,VWS V14.00,2013-06-24 17:42:00,
2013-06-24 10:44:00,68.7,28.4,29.74,NW,315,7.6,10.1,22,0.00,,SKC,0.00,VWS V14.00,2013-06-24 17:44:00,
2013-06-24 10:46:00,68.9,28.5,29.74,WNW,292,6.9,10.1,22,0.00,,SKC,0.00,VWS V14.00,2013-06-24 17:46:00,
2013-06-24 10:47:00,68.9,28.5,29.74,NW,315,7.8,10.1,22,0.00,,SKC,0.00,VWS V14.00,2013-06-24 17:47:00,
2013-06-24 10:50:00,69.6,29.1,29.74,West,270,3.8,10.1,22,0.00,,SKC,0.00,VWS V14.00,2013-06-24 17:50:00,
2013-06-24 10:52:00,69.6,29.1,29.74,West,270,6.5,6.5,22,0.00,,SKC,0.00,VWS V14.00,2013-06-24 17:52:00,
2013-06-24 10:53:00,69.8,29.3,29.74,West,270,6.9,7.8,22,0.00,,SKC,0.00,VWS V14.00,2013-06-24 17:53:00,
2013-06-24 10:55:00,69.8,29.3,29.74,West,270,7.6,10.1,22,0.00,,SKC,0.00,VWS V14.00,2013-06-24 17:55:00,
2013-06-24 10:57:00,69.8,29.3,29.74,West,270,6.3,7.6,22,0.00,,SKC,0.00,VWS V14.00,2013-06-24 17:57:00,
2013-06-24 10:59:00,70.0,29.4,29.74,WSW,248,7.8,8.7,22,0.00,,SKC,0.00,VWS V14.00,2013-06-24 17:59:00,
2013-06-24 11:00:00,70.0,29.4,29.74,West,270,5.8,8.7,22,0.00,,SKC,0.00,VWS V14.00,2013-06-24 18:00:00,
2013-06-24 11:02:00,70.7,30.0,29.74,West,270,3.1,5.8,22,0.00,,SKC,0.00,VWS V14.00,2013-06-24 18:02:00,
2013-06-24 11:03:00,71.1,30.3,29.74,West,270,6.0,6.3,22,0.00,,SKC,0.00,VWS V14.00,2013-06-24 18:03:00,
2013-06-24 11:04:00,71.2,26.9,29.74,West,270,6.3,7.6,19,0.00,,SKC,0.00,VWS V14.00,2013-06-24 18:04:00,
2013-06-24 11:05:00,71.2,26.9,29.74,West,270,6.3,7.6,19,0.00,,SKC,0.00,VWS V14.00,2013-06-24 18:05:00,
2013-06-24 11:06:00,71.2,26.9,29.74,SW,225,6.0,6.3,19,0.00,,SKC,0.00,VWS V14.00,2013-06-24 18:06:00,
2013-06-24 11:08:00,71.2,26.9,29.74,WSW,248,5.8,6.3,19,0.00,,SKC,0.00,VWS V14.00,2013-06-24 18:08:00,
2013-06-24 11:09:00,71.2,26.9,29.74,WSW,248,6.5,6.5,19,0.00,,SKC,0.00,VWS V14.00,2013-06-24 18:09:00,
2013-06-24 11:10:00,71.8,27.3,29.74,South,180,5.4,6.5,19,0.00,,SKC,0.00,VWS V14.00,2013-06-24 18:10:00,
2013-06-24 11:11:00,71.8,27.3,29.74,South,180,5.6,5.8,19,0.00,,SKC,0.00,VWS V14.00,2013-06-24 18:11:00,
2013-06-24 11:13:00,71.8,27.3,29.74,WSW,248,4.5,7.8,19,0.00,,SKC,0.00,VWS V14.00,2013-06-24 18:13:00,
2013-06-24 11:14:00,71.8,27.3,29.74,SW,225,4.7,7.8,19,0.00,,SKC,0.00,VWS V14.00,2013-06-24 18:14:00,
2013-06-24 11:15:00,71.8,27.3,29.74,WSW,248,2.0,7.8,19,0.00,,SKC,0.00,VWS V14.00,2013-06-24 18:15:00,
2013-06-24 11:17:00,72.3,27.8,29.74,SW,225,6.5,6.5,19,0.00,,SKC,0.00,VWS V14.00,2013-06-24 18:17:00,
2013-06-24 11:18:00,71.4,27.0,29.74,WSW,248,10.1,10.1,19,0.00,,SKC,0.00,VWS V14.00,2013-06-24 18:18:00,
2013-06-24 11:19:00,71.1,26.8,29.74,SW,225,8.1,10.1,19,0.00,,SKC,0.00,VWS V14.00,2013-06-24 18:19:00,
2013-06-24 11:20:00,71.1,26.8,29.74,SW,225,8.1,10.1,19,0.00,,SKC,0.00,VWS V14.00,2013-06-24 18:20:00,
2013-06-24 11:22:00,70.5,26.3,29.74,South,180,6.5,8.1,19,0.00,,SKC,0.00,VWS V14.00,2013-06-24 18:22:00,
2013-06-24 11:23:00,70.5,26.3,29.74,South,180,3.6,8.1,19,0.00,,SKC,0.00,VWS V14.00,2013-06-24 18:23:00,
2013-06-24 11:25:00,70.3,26.2,29.74,SW,225,4.3,8.1,19,0.00,,SKC,0.00,VWS V14.00,2013-06-24 18:25:00,
2013-06-24 11:28:00,70.3,26.2,29.74,WSW,248,8.7,8.7,19,0.00,,SKC,0.00,VWS V14.00,2013-06-24 18:28:00,
2013-06-24 11:30:00,70.7,26.5,29.74,SW,225,6.5,8.7,19,0.00,,SKC,0.00,VWS V14.00,2013-06-24 18:30:00,
2013-06-24 11:31:00,70.7,26.5,29.74,SW,225,6.5,6.7,19,0.00,,SKC,0.00,VWS V14.00,2013-06-24 18:31:00,
2013-06-24 11:33:00,70.7,26.5,29.74,WSW,248,6.5,6.7,19,0.00,,SKC,0.00,VWS V14.00,2013-06-24 18:33:00,
2013-06-24 11:35:00,70.3,26.2,29.74,SW,225,4.0,7.4,19,0.00,,SKC,0.00,VWS V14.00,2013-06-24 18:35:00,
2013-06-24 11:36:00,70.3,26.2,29.74,SW,225,4.0,4.0,19,0.00,,SKC,0.00,VWS V14.00,2013-06-24 18:36:00,
2013-06-24 11:38:00,70.3,26.2,29.74,SSW,202,2.9,4.0,19,0.00,,SKC,0.00,VWS V14.00,2013-06-24 18:38:00,
2013-06-24 11:39:00,70.7,26.5,29.74,SW,225,4.9,7.2,19,0.00,,SKC,0.00,VWS V14.00,2013-06-24 18:39:00,
2013-06-24 11:40:00,70.7,26.5,29.74,SW,225,6.0,7.2,19,0.00,,SKC,0.00,VWS V14.00,2013-06-24 18:40:00,
2013-06-24 11:42:00,70.3,26.2,29.74,WSW,248,8.1,8.1,19,0.00,,SKC,0.00,VWS V14.00,2013-06-24 18:42:00,
2013-06-24 11:43:00,70.3,26.2,29.74,WSW,248,8.1,8.1,19,0.00,,SKC,0.00,VWS V14.00,2013-06-24 18:43:00,
2013-06-24 11:44:00,70.3,26.2,29.74,WSW,248,8.1,8.1,19,0.00,,SKC,0.00,VWS V14.00,2013-06-24 18:44:00,
2013-06-24 11:45:00,70.2,26.0,29.74,WSW,248,4.9,8.1,19,0.00,,SKC,0.00,VWS V14.00,2013-06-24 18:45:00,
2013-06-24 11:46:00,70.2,26.0,29.74,West,270,5.4,6.0,19,0.00,,SKC,0.00,VWS V14.00,2013-06-24 18:46:00,
2013-06-24 11:48:00,70.3,26.2,29.74,SW,225,7.4,7.4,19,0.00,,SKC,0.00,VWS V14.00,2013-06-24 18:48:00,
2013-06-24 11:49:00,70.2,26.0,29.74,SW,225,10.7,10.7,19,0.00,,SKC,0.00,VWS V14.00,2013-06-24 18:49:00,
2013-06-24 11:50:00,70.0,25.9,29.74,SW,225,6.5,10.7,19,0.00,,SKC,0.00,VWS V14.00,2013-06-24 18:50:00,
2013-06-24 11:51:00,70.2,26.0,29.74,West,270,7.2,7.2,19,0.00,,SKC,0.00,VWS V14.00,2013-06-24 18:51:00,
2013-06-24 11:53:00,70.2,26.0,29.74,West,270,3.6,7.6,19,0.00,,SKC,0.00,VWS V14.00,2013-06-24 18:53:00,
2013-06-24 11:54:00,70.2,26.0,29.74,West,270,4.0,7.6,19,0.00,,SKC,0.00,VWS V14.00,2013-06-24 18:54:00,
2013-06-24 11:55:00,70.2,26.0,29.74,WNW,292,8.1,8.1,19,0.00,,SKC,0.00,VWS V14.00,2013-06-24 18:55:00,
2013-06-24 11:56:00,70.2,26.0,29.74,SW,225,6.5,8.1,19,0.00,,SKC,0.00,VWS V14.00,2013-06-24 18:56:00,
2013-06-24 11:59:00,70.0,25.9,29.74,WSW,248,6.0,8.1,19,0.00,,SKC,0.00,VWS V14.00,2013-06-24 18:59:00,
2013-06-24 12:00:00,69.8,25.7,29.74,WSW,248,3.8,8.1,19,0.00,,SKC,0.00,VWS V14.00,2013-06-24 19:00:00,
2013-06-24 12:02:00,70.0,25.9,29.74,SW,225,3.8,3.8,19,0.00,,SKC,0.00,VWS V14.00,2013-06-24 19:02:00,
2013-06-24 12:04:00,69.6,26.8,29.74,WSW,248,4.7,5.6,20,0.00,,SKC,0.00,VWS V14.00,2013-06-24 19:04:00,
2013-06-24 12:05:00,69.6,26.8,29.74,SW,225,4.3,5.6,20,0.00,,SKC,0.00,VWS V14.00,2013-06-24 19:05:00,
2013-06-24 12:08:00,69.4,26.7,29.74,SW,225,5.6,5.6,20,0.00,,SKC,0.00,VWS V14.00,2013-06-24 19:08:00,
2013-06-24 12:09:00,69.4,26.7,29.74,SW,225,6.5,6.5,20,0.00,,SKC,0.00,VWS V14.00,2013-06-24 19:09:00,
2013-06-24 12:10:00,69.4,26.7,29.74,SW,225,7.4,7.4,20,0.00,,SKC,0.00,VWS V14.00,2013-06-24 19:10:00,
2013-06-24 12:13:00,69.3,26.5,29.76,West,270,6.0,8.1,20,0.00,,SKC,0.00,VWS V14.00,2013-06-24 19:13:00,
2013-06-24 12:15:00,69.1,26.4,29.76,West,270,6.3,8.1,20,0.00,,SKC,0.00,VWS V14.00,2013-06-24 19:15:00,
2013-06-24 12:18:00,69.1,26.4,29.76,SW,225,10.5,11.0,20,0.00,,SKC,0.00,VWS V14.00,2013-06-24 19:18:00,
2013-06-24 12:20:00,69.1,26.4,29.76,WSW,248,10.5,11.0,20,0.00,,SKC,0.00,VWS V14.00,2013-06-24 19:20:00,
2013-06-24 12:21:00,69.1,26.4,29.76,SW,225,7.4,10.7,20,0.00,,SKC,0.00,VWS V14.00,2013-06-24 19:21:00,
2013-06-24 12:23:00,69.1,26.4,29.76,SW,225,9.2,10.7,20,0.00,,SKC,0.00,VWS V14.00,2013-06-24 19:23:00,
2013-06-24 12:25:00,69.1,26.4,29.76,SSW,202,6.0,6.5,20,0.00,,SKC,0.00,VWS V14.00,2013-06-24 19:25:00,
2013-06-24 12:26:00,69.1,26.4,29.76,SW,225,5.6,6.5,20,0.00,,SKC,0.00,VWS V14.00,2013-06-24 19:26:00,
2013-06-24 12:27:00,69.1,26.4,29.76,SW,225,5.6,6.5,20,0.00,,SKC,0.00,VWS V14.00,2013-06-24 19:27:00,
2013-06-24 12:29:00,69.1,26.4,29.74,South,180,6.0,8.1,20,0.00,,SKC,0.00,VWS V14.00,2013-06-24 19:29:00,
2013-06-24 12:30:00,69.3,26.5,29.74,WSW,248,10.7,10.7,20,0.00,,SKC,0.00,VWS V14.00,2013-06-24 19:30:00,
2013-06-24 12:31:00,69.3,26.5,29.74,West,270,8.7,10.7,20,0.00,,SKC,0.00,VWS V14.00,2013-06-24 19:31:00,
2013-06-24 12:32:00,69.3,26.5,29.74,West,270,5.8,10.7,20,0.00,,SKC,0.00,VWS V14.00,2013-06-24 19:32:00,
2013-06-24 12:34:00,69.1,28.7,29.74,West,270,8.7,11.9,22,0.00,,SKC,0.00,VWS V14.00,2013-06-24 19:34:00,
2013-06-24 12:35:00,69.1,28.7,29.74,West,270,7.4,11.9,22,0.00,,SKC,0.00,VWS V14.00,2013-06-24 19:35:00,
2013-06-24 12:37:00,68.9,28.5,29.74,West,270,6.7,7.8,22,0.00,,SKC,0.00,VWS V14.00,2013-06-24 19:37:00,
2013-06-24 12:39:00,69.1,28.7,29.74,WSW,248,5.8,7.8,22,0.00,,SKC,0.00,VWS V14.00,2013-06-24 19:39:00,
2013-06-24 12:40:00,69.3,28.8,29.74,West,270,6.9,7.8,22,0.00,,SKC,0.00,VWS V14.00,2013-06-24 19:40:00,
2013-06-24 12:42:00,69.3,28.8,29.74,West,270,6.5,6.9,22,0.00,,SKC,0.00,VWS V14.00,2013-06-24 19:42:00,
2013-06-24 12:44:00,69.3,28.8,29.74,SW,225,7.4,14.8,22,0.00,,SKC,0.00,VWS V14.00,2013-06-24 19:44:00,
2013-06-24 12:45:00,69.3,28.8,29.74,SW,225,6.5,14.8,22,0.00,,SKC,0.00,VWS V14.00,2013-06-24 19:45:00,
2013-06-24 12:47:00,69.3,28.8,29.74,SW,225,6.5,6.5,22,0.00,,SKC,0.00,VWS V14.00,2013-06-24 19:47:00,
2013-06-24 12:48:00,69.3,28.8,29.74,SW,225,6.5,6.5,22,0.00,,SKC,0.00,VWS V14.00,2013-06-24 19:48:00,
2013-06-24 12:50:00,69.1,28.7,29.74,SW,225,6.5,9.6,22,0.00,,SKC,0.00,VWS V14.00,2013-06-24 19:50:00,
2013-06-24 12:52:00,69.1,28.7,29.74,West,270,6.0,6.5,22,0.00,,SKC,0.00,VWS V14.00,2013-06-24 19:52:00,
2013-06-24 12:53:00,68.9,29.6,29.74,West,270,9.6,9.6,23,0.00,,SKC,0.00,VWS V14.00,2013-06-24 19:53:00,
2013-06-24 12:55:00,68.9,29.6,29.74,West,270,8.5,9.6,23,0.00,,SKC,0.00,VWS V14.00,2013-06-24 19:55:00,
2013-06-24 12:58:00,68.4,30.2,29.74,West,270,5.4,8.7,24,0.00,,SKC,0.00,VWS V14.00,2013-06-24 19:58:00,
2013-06-24 13:00:00,68.4,31.2,29.76,West,270,8.5,12.8,25,0.00,,SKC,0.00,VWS V14.00,2013-06-24 20:00:00,
2013-06-24 13:03:00,68.2,31.0,29.76,West,270,13.0,13.0,25,0.00,,SKC,0.00,VWS V14.00,2013-06-24 20:03:00,
2013-06-24 13:04:00,68.2,31.0,29.76,West,270,10.5,13.0,25,0.00,,SKC,0.00,VWS V14.00,2013-06-24 20:04:00,
2013-06-24 13:05:00,68.2,31.0,29.76,West,270,7.8,13.0,25,0.00,,SKC,0.00,VWS V14.00,2013-06-24 20:05:00,
2013-06-24 13:08:00,68.2,30.0,29.76,West,270,10.3,13.0,24,0.00,,SKC,0.00,VWS V14.00,2013-06-24 20:08:00,
2013-06-24 13:09:00,68.2,30.0,29.76,West,270,11.4,13.0,24,0.00,,SKC,0.00,VWS V14.00,2013-06-24 20:09:00,
2013-06-24 13:10:00,68.2,30.0,29.76,West,270,11.4,13.0,24,0.00,,SKC,0.00,VWS V14.00,2013-06-24 20:10:00,
2013-06-24 13:11:00,68.2,30.0,29.76,WNW,292,13.2,13.2,24,0.00,,SKC,0.00,VWS V14.00,2013-06-24 20:11:00,
2013-06-24 13:13:00,68.0,29.9,29.76,West,270,7.8,13.2,24,0.00,,SKC,0.00,VWS V14.00,2013-06-24 20:13:00,
2013-06-24 13:14:00,67.8,30.7,29.76,West,270,10.7,13.2,25,0.00,,SKC,0.00,VWS V14.00,2013-06-24 20:14:00,
2013-06-24 13:15:00,67.8,30.7,29.76,West,270,14.3,14.3,25,0.00,,SKC,0.00,VWS V14.00,2013-06-24 20:15:00,
2013-06-24 13:17:00,67.8,30.7,29.76,West,270,7.8,11.0,25,0.00,,SKC,0.00,VWS V14.00,2013-06-24 20:17:00,
2013-06-24 13:18:00,67.6,30.6,29.76,WNW,292,10.1,11.9,25,0.00,,SKC,0.00,VWS V14.00,2013-06-24 20:18:00,
2013-06-24 13:20:00,67.8,30.7,29.76,WSW,248,8.7,11.9,25,0.00,,SKC,0.00,VWS V14.00,2013-06-24 20:20:00,
2013-06-24 13:21:00,67.8,30.7,29.76,West,270,7.8,8.7,25,0.00,,SKC,0.00,VWS V14.00,2013-06-24 20:21:00,
2013-06-24 13:22:00,67.8,30.7,29.76,West,270,7.8,8.7,25,0.00,,SKC,0.00,VWS V14.00,2013-06-24 20:22:00,
2013-06-24 13:23:00,67.8,31.7,29.76,WNW,292,8.7,10.5,26,0.00,,SKC,0.00,VWS V14.00,2013-06-24 20:23:00,
2013-06-24 13:25:00,67.8,31.7,29.76,West,270,7.4,12.8,26,0.00,,SKC,0.00,VWS V14.00,2013-06-24 20:25:00,
2013-06-24 13:26:00,68.0,30.9,29.76,WNW,292,6.5,8.1,25,0.00,,SKC,0.00,VWS V14.00,2013-06-24 20:26:00,
2013-06-24 13:27:00,68.4,31.2,29.76,NW,315,6.7,8.7,25,0.00,,SKC,0.00,VWS V14.00,2013-06-24 20:27:00,
2013-06-24 13:29:00,68.5,30.4,29.76,WNW,292,11.0,11.0,24,0.00,,SKC,0.00,VWS V14.00,2013-06-24 20:29:00,
2013-06-24 13:30:00,69.1,29.8,29.76,WNW,292,8.7,8.7,23,0.00,,SKC,0.00,VWS V14.00,2013-06-24 20:30:00,
2013-06-24 13:32:00,69.1,29.8,29.76,WNW,292,9.8,10.3,23,0.00,,SKC,0.00,VWS V14.00,2013-06-24 20:32:00,
2013-06-24 13:34:00,69.4,30.1,29.76,West,270,10.1,11.4,23,0.00,,SKC,0.00,VWS V14.00,2013-06-24 20:34:00,
2013-06-24 13:35:00,69.4,30.1,29.76,WNW,292,10.3,11.4,23,0.00,,SKC,0.00,VWS V14.00,2013-06-24 20:35:00,
2013-06-24 13:36:00,69.4,30.1,29.76,WNW,292,7.4,10.7,23,0.00,,SKC,0.00,VWS V14.00,2013-06-24 20:36:00,
2013-06-24 13:37:00,69.4,30.1,29.76,WNW,292,7.4,10.7,23,0.00,,SKC,0.00,VWS V14.00,2013-06-24 20:37:00,
2013-06-24 13:38:00,70.0,29.4,29.76,WNW,292,7.6,10.7,22,0.00,,SKC,0.00,VWS V14.00,2013-06-24 20:38:00,
2013-06-24 13:39:00,70.0,29.4,29.76,West,270,11.2,11.2,22,0.00,,SKC,0.00,VWS V14.00,2013-06-24 20:39:00,
2013-06-24 13:40:00,70.5,29.9,29.76,West,270,7.4,11.2,22,0.00,,SKC,0.00,VWS V14.00,2013-06-24 20:40:00,
2013-06-24 13:41:00,70.0,29.4,29.76,West,270,11.2,11.2,22,0.00,,SKC,0.00,VWS V14.00,2013-06-24 20:41:00,
2013-06-24 13:42:00,70.5,29.9,29.76,West,270,7.8,8.7,22,0.00,,SKC,0.00,VWS V14.00,2013-06-24 20:42:00,
2013-06-24 13:43:00,70.9,30.2,29.76,West,270,9.0,10.1,22,0.00,,SKC,0.00,VWS V14.00,2013-06-24 20:43:00,
2013-06-24 13:45:00,70.7,30.0,29.76,West,270,8.7,12.5,22,0.00,,SKC,0.00,VWS V14.00,2013-06-24 20:45:00,
2013-06-24 13:46:00,71.4,30.6,29.76,West,270,8.7,9.8,22,0.00,,SKC,0.00,VWS V14.00,2013-06-24 20:46:00,
2013-06-24 13:47:00,71.4,30.6,29.76,West,270,10.3,10.3,22,0.00,,SKC,0.00,VWS V14.00,2013-06-24 20:47:00,
2013-06-24 13:48:00,71.4,30.6,29.76,WSW,248,10.5,13.9,22,0.00,,SKC,0.00,VWS V14.00,2013-06-24 20:48:00,
2013-06-24 13:50:00,71.8,29.8,29.76,West,270,7.6,13.9,21,0.00,,SKC,0.00,VWS V14.00,2013-06-24 20:50:00,
2013-06-24 13:52:00,71.6,29.6,29.76,WNW,292,9.4,9.4,21,0.00,,SKC,0.00,VWS V14.00,2013-06-24 20:52:00,
2013-06-24 13:53:00,71.8,29.8,29.76,WNW,292,7.8,11.4,21,0.00,,SKC,0.00,VWS V14.00,2013-06-24 20:53:00,
2013-06-24 13:55:00,71.6,29.6,29.76,WNW,292,11.4,11.4,21,0.00,,SKC,0.00,VWS V14.00,2013-06-24 20:55:00,
2013-06-24 13:57:00,71.8,29.8,29.76,West,270,12.3,13.2,21,0.00,,SKC,0.00,VWS V14.00,2013-06-24 20:57:00,
2013-06-24 13:58:00,71.8,29.8,29.76,West,270,12.3,13.2,21,0.00,,SKC,0.00,VWS V14.00,2013-06-24 20:58:00,
2013-06-24 14:00:00,72.1,30.1,29.76,West,270,9.2,13.2,21,0.00,,SKC,0.00,VWS V14.00,2013-06-24 21:00:00,
2013-06-24 14:02:00,72.1,30.1,29.76,West,270,7.8,13.2,21,0.00,,SKC,0.00,VWS V14.00,2013-06-24 21:02:00,
2013-06-24 14:03:00,72.1,27.6,29.76,West,270,11.0,13.2,19,0.00,,SKC,0.00,VWS V14.00,2013-06-24 21:03:00,
2013-06-24 14:05:00,72.5,27.9,29.76,NW,315,8.1,13.2,19,0.00,,SKC,0.00,VWS V14.00,2013-06-24 21:05:00,
2013-06-24 14:06:00,72.1,27.6,29.76,West,270,10.3,13.2,19,0.00,,SKC,0.00,VWS V14.00,2013-06-24 21:06:00,
2013-06-24 14:07:00,72.7,28.1,29.76,West,270,10.1,11.0,19,0.00,,SKC,0.00,VWS V14.00,2013-06-24 21:07:00,
2013-06-24 14:09:00,72.7,28.1,29.76,WSW,248,10.5,11.0,19,0.00,,SKC,0.00,VWS V14.00,2013-06-24 21:09:00,
2013-06-24 14:10:00,72.3,27.8,29.76,West,270,11.4,16.8,19,0.00,,SKC,0.00,VWS V14.00,2013-06-24 21:10:00,
2013-06-24 14:11:00,72.3,27.8,29.76,NW,315,8.1,11.4,19,0.00,,SKC,0.00,VWS V14.00,2013-06-24 21:11:00,
2013-06-24 14:13:00,72.9,28.2,29.76,West,270,8.7,11.4,19,0.00,,SKC,0.00,VWS V14.00,2013-06-24 21:13:00,
2013-06-24 14:14:00,72.9,28.2,29.76,West,270,6.0,11.4,19,0.00,,SKC,0.00,VWS V14.00,2013-06-24 21:14:00,
2013-06-24 14:15:00,72.9,28.2,29.76,West,270,6.0,11.4,19,0.00,,SKC,0.00,VWS V14.00,2013-06-24 21:15:00,
2013-06-24 14:16:00,72.9,28.2,29.76,WSW,248,8.1,8.1,19,0.00,,SKC,0.00,VWS V14.00,2013-06-24 21:16:00,
2013-06-24 14:18:00,73.0,28.4,29.76,West,270,6.3,9.8,19,0.00,,SKC,0.00,VWS V14.00,2013-06-24 21:18:00,
2013-06-24 14:19:00,73.2,28.5,29.76,NW,315,11.2,11.2,19,0.00,,SKC,0.00,VWS V14.00,2013-06-24 21:19:00,
2013-06-24 14:20:00,73.2,28.5,29.76,WNW,292,9.8,11.2,19,0.00,,SKC,0.00,VWS V14.00,2013-06-24 21:20:00,
2013-06-24 14:21:00,73.2,28.5,29.76,WNW,292,10.7,11.2,19,0.00,,SKC,0.00,VWS V14.00,2013-06-24 21:21:00,
2013-06-24 14:23:00,73.8,27.6,29.76,WSW,248,5.6,11.2,18,0.00,,SKC,0.00,VWS V14.00,2013-06-24 21:23:00,
2013-06-24 14:25:00,73.8,27.6,29.76,West,270,10.1,11.2,18,0.00,,SKC,0.00,VWS V14.00,2013-06-24 21:25:00,
2013-06-24 14:26:00,73.6,27.5,29.76,West,270,9.8,10.1,18,0.00,,SKC,0.00,VWS V14.00,2013-06-24 21:26:00,
2013-06-24 14:29:00,73.2,28.5,29.74,West,270,9.2,15.4,19,0.00,,SKC,0.00,VWS V14.00,2013-06-24 21:29:00,
2013-06-24 14:30:00,72.9,28.2,29.74,West,270,10.1,15.4,19,0.00,,SKC,0.00,VWS V14.00,2013-06-24 21:30:00,
2013-06-24 14:31:00,73.0,28.4,29.74,West,270,6.5,10.1,19,0.00,,SKC,0.00,VWS V14.00,2013-06-24 21:31:00,
2013-06-24 14:35:00,73.0,28.4,29.74,WNW,292,8.7,10.1,19,0.00,,SKC,0.00,VWS V14.00,2013-06-24 21:35:00,
2013-06-24 14:36:00,73.0,28.4,29.74,WNW,292,12.8,12.8,19,0.00,,SKC,0.00,VWS V14.00,2013-06-24 21:36:00,
2013-06-24 14:37:00,73.2,28.5,29.74,WNW,292,8.7,12.8,19,0.00,,SKC,0.00,VWS V14.00,2013-06-24 21:37:00,
2013-06-24 14:40:00,73.0,28.4,29.74,West,270,8.7,13.0,19,0.00,,SKC,0.00,VWS V14.00,2013-06-24 21:40:00,
2013-06-24 14:41:00,73.0,28.4,29.74,West,270,8.7,13.0,19,0.00,,SKC,0.00,VWS V14.00,2013-06-24 21:41:00,
2013-06-24 14:42:00,73.0,28.4,29.74,West,270,8.7,13.0,19,0.00,,SKC,0.00,VWS V14.00,2013-06-24 21:42:00,
2013-06-24 14:45:00,73.4,27.4,29.76,West,270,6.3,13.0,18,0.00,,SKC,0.00,VWS V14.00,2013-06-24 21:45:00,
2013-06-24 14:46:00,73.4,27.4,29.76,West,270,8.1,8.1,18,0.00,,SKC,0.00,VWS V14.00,2013-06-24 21:46:00,
2013-06-24 14:47:00,73.4,27.4,29.76,West,270,9.6,11.4,18,0.00,,SKC,0.00,VWS V14.00,2013-06-24 21:47:00,
2013-06-24 14:48:00,73.4,27.4,29.76,West,270,8.1,11.4,18,0.00,,SKC,0.00,VWS V14.00,2013-06-24 21:48:00,
2013-06-24 14:50:00,73.4,27.4,29.76,West,270,7.8,11.4,18,0.00,,SKC,0.00,VWS V14.00,2013-06-24 21:50:00,
2013-06-24 14:51:00,73.4,27.4,29.76,West,270,7.8,11.4,18,0.00,,SKC,0.00,VWS V14.00,2013-06-24 21:51:00,
2013-06-24 14:52:00,74.3,28.1,29.76,SW,225,4.9,7.8,18,0.00,,SKC,0.00,VWS V14.00,2013-06-24 21:52:00,
2013-06-24 14:53:00,73.9,27.8,29.76,WSW,248,7.8,8.1,18,0.00,,SKC,0.00,VWS V14.00,2013-06-24 21:53:00,
2013-06-24 14:55:00,74.1,27.9,29.76,WSW,248,7.4,8.5,18,0.00,,SKC,0.00,VWS V14.00,2013-06-24 21:55:00,
2013-06-24 14:56:00,74.3,28.1,29.76,SW,225,7.4,7.4,18,0.00,,SKC,0.00,VWS V14.00,2013-06-24 21:56:00,
2013-06-24 14:57:00,74.1,25.1,29.76,WSW,248,6.3,7.6,16,0.00,,SKC,0.00,VWS V14.00,2013-06-24 21:57:00,
2013-06-24 14:58:00,74.1,25.1,29.76,West,270,11.4,11.4,16,0.00,,SKC,0.00,VWS V14.00,2013-06-24 21:58:00,
2013-06-24 15:00:00,73.9,27.8,29.76,WNW,292,8.5,11.4,18,0.00,,SKC,0.00,VWS V14.00,2013-06-24 22:00:00,
2013-06-24 15:01:00,73.9,27.8,29.76,West,270,8.5,8.5,18,0.00,,SKC,0.00,VWS V14.00,2013-06-24 22:01:00,
2013-06-24 15:02:00,73.6,27.5,29.76,WSW,248,7.2,8.5,18,0.00,,SKC,0.00,VWS V14.00,2013-06-24 22:02:00,
2013-06-24 15:03:00,73.6,27.5,29.76,West,270,3.6,8.5,18,0.00,,SKC,0.00,VWS V14.00,2013-06-24 22:03:00,
2013-06-24 15:04:00,73.6,27.5,29.76,West,270,5.6,8.5,18,0.00,,SKC,0.00,VWS V14.00,2013-06-24 22:04:00,
2013-06-24 15:05:00,73.6,27.5,29.76,West,270,8.5,8.5,18,0.00,,SKC,0.00,VWS V14.00,2013-06-24 22:05:00,
2013-06-24 15:06:00,73.2,28.5,29.76,WSW,248,10.7,10.7,19,0.00,,SKC,0.00,VWS V14.00,2013-06-24 22:06:00,
2013-06-24 15:08:00,73.0,28.4,29.76,West,270,8.5,12.3,19,0.00,,SKC,0.00,VWS V14.00,2013-06-24 22:08:00,
2013-06-24 15:09:00,73.0,28.4,29.76,WSW,248,9.8,12.3,19,0.00,,SKC,0.00,VWS V14.00,2013-06-24 22:09:00,
2013-06-24 15:11:00,72.7,28.1,29.76,SW,225,10.3,12.3,19,0.00,,SKC,0.00,VWS V14.00,2013-06-24 22:11:00,
2013-06-24 15:13:00,72.0,27.5,29.76,WSW,248,10.7,13.2,19,0.00,,SKC,0.00,VWS V14.00,2013-06-24 22:13:00,
2013-06-24 15:14:00,71.8,27.3,29.76,West,270,10.5,13.2,19,0.00,,SKC,0.00,VWS V14.00,2013-06-24 22:14:00,
2013-06-24 15:15:00,71.6,27.2,29.76,West,270,12.1,13.2,19,0.00,,SKC,0.00,VWS V14.00,2013-06-24 22:15:00,
2013-06-24 15:16:00,71.6,27.2,29.76,WSW,248,12.8,12.8,19,0.00,,SKC,0.00,VWS V14.00,2013-06-24 22:16:00,
2013-06-24 15:18:00,71.6,27.2,29.76,WNW,292,11.2,12.8,19,0.00,,SKC,0.00,VWS V14.00,2013-06-24 22:18:00,
2013-06-24 15:20:00,71.1,26.8,29.76,WSW,248,12.8,13.9,19,0.00,,SKC,0.00,VWS V14.00,2013-06-24 22:20:00,
2013-06-24 15:22:00,70.9,26.6,29.76,NW,315,12.8,15.9,19,0.00,,SKC,0.00,VWS V14.00,2013-06-24 22:22:00,
2013-06-24 15:23:00,70.7,26.5,29.76,West,270,17.0,17.2,19,0.00,,SKC,0.00,VWS V14.00,2013-06-24 22:23:00,
2013-06-24 15:24:00,70.7,26.5,29.76,West,270,13.0,17.2,19,0.00,,SKC,0.00,VWS V14.00,2013-06-24 22:24:00,
2013-06-24 15:25:00,70.7,26.5,29.76,West,270,17.7,17.7,19,0.00,,SKC,0.00,VWS V14.00,2013-06-24 22:25:00,
2013-06-24 15:27:00,70.3,26.2,29.76,West,270,17.5,17.7,19,0.00,,SKC,0.00,VWS V14.00,2013-06-24 22:27:00,
2013-06-24 15:28:00,70.3,26.2,29.76,West,270,12.8,17.7,19,0.00,,SKC,0.00,VWS V14.00,2013-06-24 22:28:00,
2013-06-24 15:29:00,70.0,25.9,29.76,West,270,12.5,17.7,19,0.00,,SKC,0.00,VWS V14.00,2013-06-24 22:29:00,
2013-06-24 15:30:00,70.0,25.9,29.76,West,270,13.9,13.9,19,0.00,,SKC,0.00,VWS V14.00,2013-06-24 22:30:00,
2013-06-24 15:33:00,69.6,29.1,29.76,West,270,13.2,13.9,22,0.00,,SKC,0.00,VWS V14.00,2013-06-24 22:33:00,
2013-06-24 15:34:00,69.6,29.1,29.76,West,270,13.2,13.9,22,0.00,,SKC,0.00,VWS V14.00,2013-06-24 22:34:00,
2013-06-24 15:35:00,69.6,29.1,29.76,West,270,10.7,10.7,22,0.00,,SKC,0.00,VWS V14.00,2013-06-24 22:35:00,
2013-06-24 15:36:00,69.6,29.1,29.76,West,270,14.1,17.5,22,0.00,,SKC,0.00,VWS V14.00,2013-06-24 22:36:00,
2013-06-24 15:38:00,69.3,28.8,29.76,WSW,248,15.4,19.2,22,0.00,,SKC,0.00,VWS V14.00,2013-06-24 22:38:00,
2013-06-24 15:39:00,69.3,28.8,29.76,WNW,292,14.1,19.2,22,0.00,,SKC,0.00,VWS V14.00,2013-06-24 22:39:00,
2013-06-24 15:40:00,69.1,28.7,29.76,West,270,16.3,16.3,22,0.00,,SKC,0.00,VWS V14.00,2013-06-24 22:40:00,
2013-06-24 15:41:00,69.1,28.7,29.76,WNW,292,17.7,18.8,22,0.00,,SKC,0.00,VWS V14.00,2013-06-24 22:41:00,
2013-06-24 15:44:00,68.4,29.1,29.76,WSW,248,23.0,23.0,23,0.00,,SKC,0.00,VWS V14.00,2013-06-24 22:44:00,
2013-06-24 15:45:00,68.4,29.1,29.76,WSW,248,19.9,23.0,23,0.00,,SKC,0.00,VWS V14.00,2013-06-24 22:45:00,
2013-06-24 15:46:00,68.4,29.1,29.76,WSW,248,15.2,23.0,23,0.00,,SKC,0.00,VWS V14.00,2013-06-24 22:46:00,
2013-06-24 15:47:00,68.0,29.9,29.76,West,270,8.7,19.9,24,0.00,,SKC,0.00,VWS V14.00,2013-06-24 22:47:00,
2013-06-24 15:49:00,68.2,30.0,29.76,West,270,21.5,21.5,24,0.00,,SKC,0.00,VWS V14.00,2013-06-24 22:49:00,
2013-06-24 15:50:00,68.2,30.0,29.76,West,270,12.1,21.5,24,0.00,,SKC,0.00,VWS V14.00,2013-06-24 22:50:00,
2013-06-24 15:51:00,68.2,30.0,29.76,West,270,12.5,13.4,24,0.00,,SKC,0.00,VWS V14.00,2013-06-24 22:51:00,
2013-06-24 15:52:00,68.4,30.2,29.76,WSW,248,11.2,17.2,24,0.00,,SKC,0.00,VWS V14.00,2013-06-24 22:52:00,
2013-06-24 15:55:00,68.7,29.5,29.76,West,270,15.4,17.2,23,0.00,,SKC,0.00,VWS V14.00,2013-06-24 22:55:00,
2013-06-24 15:56:00,68.7,29.5,29.76,West,270,15.4,17.2,23,0.00,,SKC,0.00,VWS V14.00,2013-06-24 22:56:00,
2013-06-24 15:59:00,68.9,29.6,29.76,West,270,13.4,15.9,23,0.00,,SKC,0.00,VWS V14.00,2013-06-24 22:59:00,
2013-06-24 16:00:00,68.9,29.6,29.76,West,270,12.8,17.7,23,0.00,,SKC,0.00,VWS V14.00,2013-06-24 23:00:00,
2013-06-24 16:01:00,68.9,29.6,29.76,West,270,14.1,15.9,23,0.00,,SKC,0.00,VWS V14.00,2013-06-24 23:01:00,
2013-06-24 16:05:00,68.9,29.6,29.76,WSW,248,15.4,19.0,23,0.00,,SKC,0.00,VWS V14.00,2013-06-24 23:05:00,
2013-06-24 16:06:00,68.9,29.6,29.76,WSW,248,17.2,17.2,23,0.00,,SKC,0.00,VWS V14.00,2013-06-24 23:06:00,
2013-06-24 16:07:00,68.9,29.6,29.76,West,270,17.2,19.7,23,0.00,,SKC,0.00,VWS V14.00,2013-06-24 23:07:00,
2013-06-24 16:10:00,68.7,29.5,29.76,West,270,12.8,19.7,23,0.00,,SKC,0.00,VWS V14.00,2013-06-24 23:10:00,
2013-06-24 16:11:00,68.4,29.1,29.76,WSW,248,13.0,19.7,23,0.00,,SKC,0.00,VWS V14.00,2013-06-24 23:11:00,
2013-06-24 16:12:00,68.4,29.1,29.76,West,270,17.9,19.7,23,0.00,,SKC,0.00,VWS V14.00,2013-06-24 23:12:00,
2013-06-24 16:15:00,68.5,29.3,29.76,West,270,15.4,19.7,23,0.00,,SKC,0.00,VWS V14.00,2013-06-24 23:15:00,
2013-06-24 16:16:00,68.4,30.2,29.76,West,270,15.4,17.7,24,0.00,,SKC,0.00,VWS V14.00,2013-06-24 23:16:00,
2013-06-24 16:17:00,68.4,30.2,29.76,West,270,15.2,17.7,24,0.00,,SKC,0.00,VWS V14.00,2013-06-24 23:17:00,
2013-06-24 16:20:00,67.6,30.6,29.76,SW,225,24.2,24.2,25,0.00,,SKC,0.00,VWS V14.00,2013-06-24 23:20:00,
2013-06-24 16:21:00,67.6,30.6,29.76,WNW,292,13.4,24.2,25,0.00,,SKC,0.00,VWS V14.00,2013-06-24 23:21:00,
2013-06-24 16:22:00,67.6,30.6,29.76,West,270,13.2,24.2,25,0.00,,SKC,0.00,VWS V14.00,2013-06-24 23:22:00,
2013-06-24 16:25:00,67.6,30.6,29.76,WNW,292,14.8,16.8,25,0.00,,SKC,0.00,VWS V14.00,2013-06-24 23:25:00,
2013-06-24 16:26:00,67.6,30.6,29.76,West,270,13.9,16.8,25,0.00,,SKC,0.00,VWS V14.00,2013-06-24 23:26:00,
2013-06-24 16:27:00,67.6,30.6,29.76,West,270,13.0,16.8,25,0.00,,SKC,0.00,VWS V14.00,2013-06-24 23:27:00,
2013-06-24 16:30:00,67.6,30.6,29.76,West,270,10.7,16.8,25,0.00,,SKC,0.00,VWS V14.00,2013-06-24 23:30:00,
2013-06-24 16:31:00,67.6,30.6,29.76,West,270,19.7,19.7,25,0.00,,SKC,0.00,VWS V14.00,2013-06-24 23:31:00,
2013-06-24 16:32:00,67.5,30.4,29.76,West,270,17.0,19.7,25,0.00,,SKC,0.00,VWS V14.00,2013-06-24 23:32:00,
2013-06-24 16:35:00,67.1,30.1,29.76,West,270,16.6,16.6,25,0.00,,SKC,0.00,VWS V14.00,2013-06-24 23:35:00,
2013-06-24 16:36:00,67.1,30.1,29.76,WNW,292,14.8,16.6,25,0.00,,SKC,0.00,VWS V14.00,2013-06-24 23:36:00,
2013-06-24 16:37:00,67.1,30.1,29.76,West,270,17.0,17.0,25,0.00,,SKC,0.00,VWS V14.00,2013-06-24 23:37:00,
2013-06-24 16:38:00,66.9,30.0,29.76,West,270,14.3,17.5,25,0.00,,SKC,0.00,VWS V14.00,2013-06-24 23:38:00,
2013-06-24 16:40:00,66.9,30.0,29.76,WNW,292,9.8,17.5,25,0.00,,SKC,0.00,VWS V14.00,2013-06-24 23:40:00,
2013-06-24 16:41:00,66.9,31.0,29.76,WSW,248,8.7,12.3,26,0.00,,SKC,0.00,VWS V14.00,2013-06-24 23:41:00,
2013-06-24 16:42:00,66.9,31.0,29.76,West,270,9.8,12.3,26,0.00,,SKC,0.00,VWS V14.00,2013-06-24 23:42:00,
2013-06-24 16:44:00,66.7,30.8,29.76,WSW,248,13.4,13.4,26,0.00,,SKC,0.00,VWS V14.00,2013-06-24 23:44:00,
2013-06-24 16:45:00,66.7,30.8,29.76,WSW,248,13.4,13.4,26,0.00,,SKC,0.00,VWS V14.00,2013-06-24 23:45:00,
2013-06-24 16:47:00,66.7,30.8,29.79,WSW,248,10.7,14.3,26,0.00,,SKC,0.00,VWS V14.00,2013-06-24 23:47:00,
2013-06-24 16:49:00,66.7,30.8,29.79,WSW,248,8.7,14.3,26,0.00,,SKC,0.00,VWS V14.00,2013-06-24 23:49:00,
2013-06-24 16:50:00,66.6,30.6,29.79,West,270,11.0,14.3,26,0.00,,SKC,0.00,VWS V14.00,2013-06-24 23:50:00,
2013-06-24 16:52:00,66.6,30.6,29.79,WSW,248,12.8,15.4,26,0.00,,SKC,0.00,VWS V14.00,2013-06-24 23:52:00,
2013-06-24 16:53:00,66.6,30.6,29.79,WNW,292,13.2,15.4,26,0.00,,SKC,0.00,VWS V14.00,2013-06-24 23:53:00,
2013-06-24 16:54:00,66.4,30.5,29.79,West,270,12.3,17.5,26,0.00,,SKC,0.00,VWS V14.00,2013-06-24 23:54:00,
2013-06-24 16:55:00,66.4,30.5,29.79,WNW,292,11.9,17.5,26,0.00,,SKC,0.00,VWS V14.00,2013-06-24 23:55:00,
2013-06-24 16:57:00,66.2,30.3,29.79,WSW,248,13.4,15.2,26,0.00,,SKC,0.00,VWS V14.00,2013-06-24 23:57:00,
2013-06-24 16:58:00,66.2,30.3,29.76,West,270,13.0,15.2,26,0.00,,SKC,0.00,VWS V14.00,2013-06-24 23:58:00,
2013-06-24 17:00:00,66.2,30.3,29.76,West,270,9.8,15.2,26,0.00,,SKC,0.00,VWS V14.00,2013-06-25 00:00:00,
2013-06-24 17:02:00,66.2,30.3,29.76,WSW,248,17.5,17.5,26,0.00,,SKC,0.00,VWS V14.00,2013-06-25 00:02:00,
2013-06-24 17:03:00,66.2,30.3,29.76,WSW,248,17.5,17.5,26,0.00,,SKC,0.00,VWS V14.00,2013-06-25 00:03:00,
2013-06-24 17:04:00,66.0,30.2,29.76,West,270,17.0,17.5,26,0.00,,SKC,0.00,VWS V14.00,2013-06-25 00:04:00,
2013-06-24 17:05:00,66.0,30.2,29.76,West,270,12.8,17.5,26,0.00,,SKC,0.00,VWS V14.00,2013-06-25 00:05:00,
2013-06-24 17:07:00,66.0,30.2,29.76,WNW,292,11.9,17.5,26,0.00,,SKC,0.00,VWS V14.00,2013-06-25 00:07:00,
2013-06-24 17:08:00,66.2,30.3,29.76,West,270,14.3,18.6,26,0.00,,SKC,0.00,VWS V14.00,2013-06-25 00:08:00,
2013-06-24 17:09:00,66.2,30.3,29.76,West,270,13.0,18.6,26,0.00,,SKC,0.00,VWS V14.00,2013-06-25 00:09:00,
2013-06-24 17:10:00,66.0,30.2,29.76,SW,225,17.5,18.6,26,0.00,,SKC,0.00,VWS V14.00,2013-06-25 00:10:00,
2013-06-24 17:12:00,65.8,30.0,29.76,West,270,13.2,18.6,26,0.00,,SKC,0.00,VWS V14.00,2013-06-25 00:12:00,
2013-06-24 17:14:00,65.8,31.0,29.79,West,270,16.3,18.6,27,0.00,,SKC,0.00,VWS V14.00,2013-06-25 00:14:00,
2013-06-24 17:15:00,65.8,31.0,29.79,WSW,248,10.5,18.6,27,0.00,,SKC,0.00,VWS V14.00,2013-06-25 00:15:00,
2013-06-24 17:16:00,65.8,31.0,29.79,WNW,292,10.7,10.7,27,0.00,,SKC,0.00,VWS V14.00,2013-06-25 00:16:00,
2013-06-24 17:17:00,65.8,30.0,29.79,West,270,10.7,14.8,26,0.00,,SKC,0.00,VWS V14.00,2013-06-25 00:17:00,
2013-06-24 17:19:00,65.8,30.0,29.79,West,270,6.5,14.8,26,0.00,,SKC,0.00,VWS V14.00,2013-06-25 00:19:00,
2013-06-24 17:20:00,65.8,30.0,29.79,West,270,6.5,14.8,26,0.00,,SKC,0.00,VWS V14.00,2013-06-25 00:20:00,
2013-06-24 17:21:00,65.8,30.0,29.79,West,270,6.5,14.8,26,0.00,,SKC,0.00,VWS V14.00,2013-06-25 00:21:00,
2013-06-24 17:23:00,65.7,29.9,29.79,WSW,248,14.8,19.7,26,0.00,,SKC,0.00,VWS V14.00,2013-06-25 00:23:00,
2013-06-24 17:24:00,65.7,29.9,29.79,West,270,12.5,19.7,26,0.00,,SKC,0.00,VWS V14.00,2013-06-25 00:24:00,
2013-06-24 17:25:00,65.7,29.9,29.79,WSW,248,8.7,19.7,26,0.00,,SKC,0.00,VWS V14.00,2013-06-25 00:25:00,
2013-06-24 17:26:00,65.3,31.4,29.79,West,270,11.0,15.4,28,0.00,,SKC,0.00,VWS V14.00,2013-06-25 00:26:00,
2013-06-24 17:28:00,65.1,32.1,29.79,West,270,15.7,17.5,29,0.00,,SKC,0.00,VWS V14.00,2013-06-25 00:28:00,
2013-06-24 17:30:00,64.8,34.2,29.79,West,270,14.1,17.5,32,0.00,,SKC,0.00,VWS V14.00,2013-06-25 00:30:00,
2013-06-24 17:31:00,64.8,34.2,29.79,WNW,292,15.9,17.5,32,0.00,,SKC,0.00,VWS V14.00,2013-06-25 00:31:00,
2013-06-24 17:32:00,64.8,34.2,29.79,WNW,292,16.3,16.3,32,0.00,,SKC,0.00,VWS V14.00,2013-06-25 00:32:00,
2013-06-24 17:34:00,64.4,33.9,29.76,WNW,292,17.5,17.5,32,0.00,,SKC,0.00,VWS V14.00,2013-06-25 00:34:00,
2013-06-24 17:35:00,64.4,33.9,29.76,West,270,10.1,17.5,32,0.00,,SKC,0.00,VWS V14.00,2013-06-25 00:35:00,
2013-06-24 17:36:00,64.4,34.7,29.76,West,270,9.6,15.4,33,0.00,,SKC,0.00,VWS V14.00,2013-06-25 00:36:00,
2013-06-24 17:37:00,64.4,34.7,29.76,West,270,9.6,15.4,33,0.00,,SKC,0.00,VWS V14.00,2013-06-25 00:37:00,
2013-06-24 17:39:00,64.4,34.7,29.76,West,270,12.8,17.5,33,0.00,,SKC,0.00,VWS V14.00,2013-06-25 00:39:00,
2013-06-24 17:40:00,64.4,34.7,29.76,West,270,12.8,17.5,33,0.00,,SKC,0.00,VWS V14.00,2013-06-25 00:40:00,
2013-06-24 17:41:00,64.4,33.9,29.76,West,270,10.7,20.8,32,0.00,,SKC,0.00,VWS V14.00,2013-06-25 00:41:00,
2013-06-24 17:42:00,64.4,33.9,29.76,West,270,17.7,23.0,32,0.00,,SKC,0.00,VWS V14.00,2013-06-25 00:42:00,
2013-06-24 17:44:00,64.2,34.5,29.76,West,270,14.8,23.0,33,0.00,,SKC,0.00,VWS V14.00,2013-06-25 00:44:00,
2013-06-24 17:45:00,64.2,34.5,29.76,West,270,14.8,23.0,33,0.00,,SKC,0.00,VWS V14.00,2013-06-25 00:45:00,
2013-06-24 17:47:00,64.4,34.7,29.76,WNW,292,12.1,14.8,33,0.00,,SKC,0.00,VWS V14.00,2013-06-25 00:47:00,
2013-06-24 17:48:00,64.4,34.7,29.76,West,270,14.8,14.8,33,0.00,,SKC,0.00,VWS V14.00,2013-06-25 00:48:00,
2013-06-24 17:49:00,64.4,33.9,29.76,West,270,12.5,15.4,32,0.00,,SKC,0.00,VWS V14.00,2013-06-25 00:49:00,
2013-06-24 17:50:00,64.6,33.3,29.76,WSW,248,12.8,12.8,31,0.00,,SKC,0.00,VWS V14.00,2013-06-25 00:50:00,
2013-06-24 17:53:00,64.6,34.1,29.76,West,270,6.9,13.4,32,0.00,,SKC,0.00,VWS V14.00,2013-06-25 00:53:00,
2013-06-24 17:54:00,64.8,34.2,29.76,West,270,12.1,13.4,32,0.00,,SKC,0.00,VWS V14.00,2013-06-25 00:54:00,
2013-06-24 17:55:00,64.8,34.2,29.76,West,270,14.3,14.3,32,0.00,,SKC,0.00,VWS V14.00,2013-06-25 00:55:00,
2013-06-24 17:56:00,64.8,34.2,29.76,West,270,12.1,13.4,32,0.00,,SKC,0.00,VWS V14.00,2013-06-25 00:56:00,
2013-06-24 17:58:00,64.8,32.6,29.76,WSW,248,13.0,14.8,30,0.00,,SKC,0.00,VWS V14.00,2013-06-25 00:58:00,
2013-06-24 18:00:00,64.8,32.6,29.76,West,270,6.5,14.8,30,0.00,,SKC,0.00,VWS V14.00,2013-06-25 01:00:00,
2013-06-24 18:01:00,64.8,32.6,29.76,SW,225,10.1,10.7,30,0.00,,SKC,0.00,VWS V14.00,2013-06-25 01:01:00,
2013-06-24 18:03:00,64.8,32.6,29.76,West,270,9.8,14.1,30,0.00,,SKC,0.00,VWS V14.00,2013-06-25 01:03:00,
2013-06-24 18:04:00,64.8,32.6,29.76,West,270,10.5,14.1,30,0.00,,SKC,0.00,VWS V14.00,2013-06-25 01:04:00,
2013-06-24 18:05:00,64.9,32.8,29.76,West,270,7.4,14.1,30,0.00,,SKC,0.00,VWS V14.00,2013-06-25 01:05:00,
2013-06-24 18:07:00,64.9,32.0,29.76,WSW,248,7.8,8.7,29,0.00,,SKC,0.00,VWS V14.00,2013-06-25 01:07:00,
2013-06-24 18:08:00,64.9,32.0,29.76,West,270,6.9,8.7,29,0.00,,SKC,0.00,VWS V14.00,2013-06-25 01:08:00,
2013-06-24 18:09:00,64.9,32.0,29.76,WSW,248,5.8,8.7,29,0.00,,SKC,0.00,VWS V14.00,2013-06-25 01:09:00,
2013-06-24 18:10:00,65.5,32.4,29.76,WSW,248,5.6,6.3,29,0.00,,SKC,0.00,VWS V14.00,2013-06-25 01:10:00,
2013-06-24 18:12:00,66.0,32.0,29.76,WSW,248,5.6,6.3,28,0.00,,SKC,0.00,VWS V14.00,2013-06-25 01:12:00,
2013-06-24 18:14:00,66.0,31.1,29.76,WSW,248,5.8,6.5,27,0.00,,SKC,0.00,VWS V14.00,2013-06-25 01:14:00,
2013-06-24 18:15:00,66.0,31.1,29.76,West,270,3.1,6.5,27,0.00,,SKC,0.00,VWS V14.00,2013-06-25 01:15:00,
2013-06-24 18:17:00,66.0,31.1,29.76,West,270,4.7,8.5,27,0.00,,SKC,0.00,VWS V14.00,2013-06-25 01:17:00,
2013-06-24 18:19:00,66.2,31.3,29.76,West,270,3.4,8.5,27,0.00,,SKC,0.00,VWS V14.00,2013-06-25 01:19:00,
2013-06-24 18:20:00,66.2,31.3,29.76,West,270,3.4,8.5,27,0.00,,SKC,0.00,VWS V14.00,2013-06-25 01:20:00,
2013-06-24 18:21:00,66.2,31.3,29.76,West,270,4.0,8.5,27,0.00,,SKC,0.00,VWS V14.00,2013-06-25 01:21:00,
2013-06-24 18:22:00,66.6,31.6,29.76,SSW,202,2.0,4.3,27,0.00,,SKC,0.00,VWS V14.00,2013-06-25 01:22:00,
2013-06-24 18:24:00,66.7,31.7,29.76,SSW,202,1.1,4.3,27,0.00,,SKC,0.00,VWS V14.00,2013-06-25 01:24:00,
2013-06-24 18:25:00,67.6,32.5,29.76,West,270,0.0,4.3,27,0.00,,SKC,0.00,VWS V14.00,2013-06-25 01:25:00,
2013-06-24 18:26:00,67.6,32.5,29.76,West,270,0.0,0.0,27,0.00,,SKC,0.00,VWS V14.00,2013-06-25 01:26:00,
2013-06-24 18:28:00,67.6,32.5,29.76,West,270,0.0,0.0,27,0.00,,SKC,0.00,VWS V14.00,2013-06-25 01:28:00,
2013-06-24 18:29:00,69.4,32.1,29.76,SE,135,1.6,2.2,25,0.00,,SKC,0.00,VWS V14.00,2013-06-25 01:29:00,
2013-06-24 18:30:00,69.4,32.1,29.76,SE,135,0.0,2.2,25,0.00,,SKC,0.00,VWS V14.00,2013-06-25 01:30:00,
2013-06-24 18:31:00,69.6,32.3,29.76,SE,135,0.0,0.0,25,0.00,,SKC,0.00,VWS V14.00,2013-06-25 01:31:00,
2013-06-24 18:33:00,69.6,32.3,29.76,SE,135,0.0,0.0,25,0.00,,SKC,0.00,VWS V14.00,2013-06-25 01:33:00,
2013-06-24 18:35:00,69.6,32.3,29.76,SW,225,2.7,2.7,25,0.00,,SKC,0.00,VWS V14.00,2013-06-25 01:35:00,
2013-06-24 18:36:00,68.9,30.6,29.76,NNW,338,4.9,4.9,24,0.00,,SKC,0.00,VWS V14.00,2013-06-25 01:36:00,
2013-06-24 18:37:00,68.9,30.6,29.76,NNW,338,4.9,4.9,24,0.00,,SKC,0.00,VWS V14.00,2013-06-25 01:37:00,
2013-06-24 18:38:00,68.4,30.2,29.76,NW,315,1.3,6.0,24,0.00,,SKC,0.00,VWS V14.00,2013-06-25 01:38:00,
2013-06-24 18:40:00,68.4,30.2,29.76,WNW,292,0.0,6.0,24,0.00,,SKC,0.00,VWS V14.00,2013-06-25 01:40:00,
2013-06-24 18:41:00,68.2,30.0,29.76,NNE,22,3.6,3.6,24,0.00,,SKC,0.00,VWS V14.00,2013-06-25 01:41:00,
2013-06-24 18:42:00,68.2,30.0,29.76,NNE,22,3.6,3.6,24,0.00,,SKC,0.00,VWS V14.00,2013-06-25 01:42:00,
2013-06-24 18:44:00,67.8,29.7,29.79,NNW,338,3.8,5.8,24,0.00,,SKC,0.00,VWS V14.00,2013-06-25 01:44:00,
2013-06-24 18:45:00,67.8,29.7,29.79,NNW,338,3.8,5.8,24,0.00,,SKC,0.00,VWS V14.00,2013-06-25 01:45:00,
2013-06-24 18:46:00,67.8,29.7,29.79,NNW,338,4.9,4.9,24,0.00,,SKC,0.00,VWS V14.00,2013-06-25 01:46:00,
2013-06-24 18:47:00,67.8,29.7,29.79,NNW,338,4.9,4.9,24,0.00,,SKC,0.00,VWS V14.00,2013-06-25 01:47:00,
2013-06-24 18:49:00,67.8,29.7,29.79,NW,315,8.1,9.6,24,0.00,,SKC,0.00,VWS V14.00,2013-06-25 01:49:00,
2013-06-24 18:50:00,66.4,30.5,29.79,WNW,292,6.5,9.6,26,0.00,,SKC,0.00,VWS V14.00,2013-06-25 01:50:00,
2013-06-24 18:51:00,66.4,30.5,29.79,WNW,292,5.8,6.7,26,0.00,,SKC,0.00,VWS V14.00,2013-06-25 01:51:00,
2013-06-24 18:52:00,66.4,30.5,29.79,WNW,292,5.8,6.7,26,0.00,,SKC,0.00,VWS V14.00,2013-06-25 01:52:00,
2013-06-24 18:54:00,66.4,30.5,29.79,West,270,10.3,10.3,26,0.00,,SKC,0.00,VWS V14.00,2013-06-25 01:54:00,
2013-06-24 18:55:00,66.0,30.2,29.79,West,270,6.0,10.3,26,0.00,,SKC,0.00,VWS V14.00,2013-06-25 01:55:00,
2013-06-24 18:57:00,66.0,30.2,29.79,West,270,10.1,10.1,26,0.00,,SKC,0.00,VWS V14.00,2013-06-25 01:57:00,
2013-06-24 18:59:00,65.8,30.0,29.79,West,270,7.4,10.7,26,0.00,,SKC,0.00,VWS V14.00,2013-06-25 01:59:00,
2013-06-24 19:00:00,65.7,29.9,29.79,WSW,248,9.0,10.7,26,0.00,,SKC,0.00,VWS V14.00,2013-06-25 02:00:00,
2013-06-24 19:02:00,65.7,29.9,29.79,West,270,6.3,12.1,26,0.00,,SKC,0.00,VWS V14.00,2013-06-25 02:02:00,
2013-06-24 19:05:00,65.5,28.8,29.79,West,270,10.3,12.3,25,0.00,,SKC,0.00,VWS V14.00,2013-06-25 02:05:00,
2013-06-24 19:07:00,65.5,28.8,29.79,WSW,248,9.8,9.8,25,0.00,,SKC,0.00,VWS V14.00,2013-06-25 02:07:00,
2013-06-24 19:08:00,65.5,28.8,29.79,WSW,248,9.4,9.8,25,0.00,,SKC,0.00,VWS V14.00,2013-06-25 02:08:00,
2013-06-24 19:10:00,65.5,28.8,29.79,WNW,292,10.5,14.8,25,0.00,,SKC,0.00,VWS V14.00,2013-06-25 02:10:00,
2013-06-24 19:12:00,65.3,28.6,29.79,West,270,8.7,14.8,25,0.00,,SKC,0.00,VWS V14.00,2013-06-25 02:12:00,
2013-06-24 19:13:00,65.3,28.6,29.79,West,270,5.8,14.8,25,0.00,,SKC,0.00,VWS V14.00,2013-06-25 02:13:00,
2013-06-24 19:14:00,65.1,28.5,29.79,West,270,8.5,14.8,25,0.00,,SKC,0.00,VWS V14.00,2013-06-25 02:14:00,
2013-06-24 19:16:00,65.1,28.5,29.79,West,270,10.7,14.8,25,0.00,,SKC,0.00,VWS V14.00,2013-06-25 02:16:00,
2013-06-24 19:18:00,65.1,29.4,29.79,WNW,292,5.8,14.8,26,0.00,,SKC,0.00,VWS V14.00,2013-06-25 02:18:00,
2013-06-24 19:19:00,65.1,29.4,29.79,WNW,292,5.8,14.8,26,0.00,,SKC,0.00,VWS V14.00,2013-06-25 02:19:00,
2013-06-24 19:20:00,65.1,29.4,29.79,West,270,7.4,14.8,26,0.00,,SKC,0.00,VWS V14.00,2013-06-25 02:20:00,
2013-06-24 19:21:00,64.9,29.3,29.79,West,270,6.9,9.4,26,0.00,,SKC,0.00,VWS V14.00,2013-06-25 02:21:00,
2013-06-24 19:23:00,64.9,29.3,29.79,West,270,8.5,9.4,26,0.00,,SKC,0.00,VWS V14.00,2013-06-25 02:23:00,
2013-06-24 19:24:00,64.9,29.3,29.79,West,270,8.5,9.4,26,0.00,,SKC,0.00,VWS V14.00,2013-06-25 02:24:00,
2013-06-24 19:25:00,64.9,29.3,29.79,WNW,292,6.3,9.4,26,0.00,,SKC,0.00,VWS V14.00,2013-06-25 02:25:00,
2013-06-24 19:26:00,64.9,29.3,29.79,WNW,292,8.1,8.1,26,0.00,,SKC,0.00,VWS V14.00,2013-06-25 02:26:00,
2013-06-24 19:29:00,64.9,29.3,29.82,WNW,292,8.5,10.3,26,0.00,,SKC,0.00,VWS V14.00,2013-06-25 02:29:00,
2013-06-24 19:30:00,64.9,29.3,29.82,NW,315,6.0,10.3,26,0.00,,SKC,0.00,VWS V14.00,2013-06-25 02:30:00,
2013-06-24 19:32:00,64.9,28.3,29.82,WNW,292,6.0,7.2,25,0.00,,SKC,0.00,VWS V14.00,2013-06-25 02:32:00,
2013-06-24 19:34:00,64.9,28.3,29.82,West,270,6.5,8.7,25,0.00,,SKC,0.00,VWS V14.00,2013-06-25 02:34:00,
2013-06-24 19:35:00,64.9,28.3,29.82,West,270,6.5,8.7,25,0.00,,SKC,0.00,VWS V14.00,2013-06-25 02:35:00,
2013-06-24 19:37:00,64.9,29.3,29.82,West,270,6.5,10.3,26,0.00,,SKC,0.00,VWS V14.00,2013-06-25 02:37:00,
2013-06-24 19:40:00,64.9,28.3,29.82,NW,315,7.4,10.3,25,0.00,,SKC,0.00,VWS V14.00,2013-06-25 02:40:00,
2013-06-24 19:42:00,64.9,28.3,29.82,WSW,248,7.4,12.8,25,0.00,,SKC,0.00,VWS V14.00,2013-06-25 02:42:00,
2013-06-24 19:45:00,64.8,28.1,29.82,WNW,292,5.4,12.8,25,0.00,,SKC,0.00,VWS V14.00,2013-06-25 02:45:00,
2013-06-24 19:48:00,64.8,28.1,29.82,WNW,292,10.1,12.8,25,0.00,,SKC,0.00,VWS V14.00,2013-06-25 02:48:00,
2013-06-24 19:50:00,64.8,28.1,29.82,WNW,292,10.7,12.8,25,0.00,,SKC,0.00,VWS V14.00,2013-06-25 02:50:00,
2013-06-24 19:51:00,64.8,28.1,29.82,WNW,292,10.7,10.7,25,0.00,,SKC,0.00,VWS V14.00,2013-06-25 02:51:00,
2013-06-24 19:53:00,64.8,28.1,29.82,West,270,7.4,10.7,25,0.00,,SKC,0.00,VWS V14.00,2013-06-25 02:53:00,
2013-06-24 19:55:00,64.8,28.1,29.82,WSW,248,4.3,4.3,25,0.00,,SKC,0.00,VWS V14.00,2013-06-25 02:55:00,
2013-06-24 19:56:00,64.8,28.1,29.82,WNW,292,5.8,7.8,25,0.00,,SKC,0.00,VWS V14.00,2013-06-25 02:56:00,
2013-06-24 19:58:00,64.8,28.1,29.82,WNW,292,4.9,11.0,25,0.00,,SKC,0.00,VWS V14.00,2013-06-25 02:58:00,
2013-06-24 20:00:00,64.8,28.1,29.82,WNW,292,6.0,11.0,25,0.00,,SKC,0.00,VWS V14.00,2013-06-25 03:00:00,
2013-06-24 20:01:00,64.8,28.1,29.82,WNW,292,7.4,7.4,25,0.00,,SKC,0.00,VWS V14.00,2013-06-25 03:01:00,
2013-06-24 20:04:00,64.6,29.0,29.82,WNW,292,4.0,7.4,26,0.00,,SKC,0.00,VWS V14.00,2013-06-25 03:04:00,
2013-06-24 20:05:00,64.6,29.0,29.82,WNW,292,2.9,4.9,26,0.00,,SKC,0.00,VWS V14.00,2013-06-25 03:05:00,
2013-06-24 20:06:00,64.6,29.0,29.82,WNW,292,3.4,4.9,26,0.00,,SKC,0.00,VWS V14.00,2013-06-25 03:06:00,
2013-06-24 20:09:00,64.6,29.0,29.82,West,270,7.4,7.8,26,0.00,,SKC,0.00,VWS V14.00,2013-06-25 03:09:00,
2013-06-24 20:10:00,64.6,29.0,29.82,WNW,292,4.9,7.8,26,0.00,,SKC,0.00,VWS V14.00,2013-06-25 03:10:00,
2013-06-24 20:11:00,64.4,28.8,29.82,West,270,5.6,6.0,26,0.00,,SKC,0.00,VWS V14.00,2013-06-25 03:11:00,
2013-06-24 20:12:00,64.4,28.8,29.82,WNW,292,5.8,7.6,26,0.00,,SKC,0.00,VWS V14.00,2013-06-25 03:12:00,
2013-06-24 20:15:00,64.4,28.8,29.82,WNW,292,8.1,8.1,26,0.00,,SKC,0.00,VWS V14.00,2013-06-25 03:15:00,
2013-06-24 20:16:00,64.4,28.8,29.82,WNW,292,7.4,8.1,26,0.00,,SKC,0.00,VWS V14.00,2013-06-25 03:16:00,
2013-06-24 20:17:00,64.4,28.8,29.82,WNW,292,7.6,8.7,26,0.00,,SKC,0.00,VWS V14.00,2013-06-25 03:17:00,
2013-06-24 20:20:00,64.4,28.8,29.82,West,270,7.6,8.7,26,0.00,,SKC,0.00,VWS V14.00,2013-06-25 03:20:00,
2013-06-24 20:21:00,64.4,28.8,29.82,WNW,292,8.5,8.7,26,0.00,,SKC,0.00,VWS V14.00,2013-06-25 03:21:00,
2013-06-24 20:23:00,64.4,27.8,29.82,WNW,292,9.2,9.2,25,0.00,,SKC,0.00,VWS V14.00,2013-06-25 03:23:00,
2013-06-24 20:25:00,64.4,27.8,29.82,WNW,292,7.4,11.0,25,0.00,,SKC,0.00,VWS V14.00,2013-06-25 03:25:00,
2013-06-24 20:26:00,64.4,27.8,29.82,NW,315,7.2,8.1,25,0.00,,SKC,0.00,VWS V14.00,2013-06-25 03:26:00,
2013-06-24 20:27:00,64.4,27.8,29.82,WNW,292,5.6,8.1,25,0.00,,SKC,0.00,VWS V14.00,2013-06-25 03:27:00,
2013-06-24 20:28:00,64.4,27.8,29.82,NW,315,9.8,9.8,25,0.00,,SKC,0.00,VWS V14.00,2013-06-25 03:28:00,
2013-06-24 20:30:00,64.4,27.8,29.82,WNW,292,8.1,9.8,25,0.00,,SKC,0.00,VWS V14.00,2013-06-25 03:30:00,
2013-06-24 20:31:00,64.2,28.6,29.82,West,270,8.1,8.1,26,0.00,,SKC,0.00,VWS V14.00,2013-06-25 03:31:00,
2013-06-24 20:32:00,64.2,28.6,29.82,WNW,292,5.8,8.1,26,0.00,,SKC,0.00,VWS V14.00,2013-06-25 03:32:00,
2013-06-24 20:34:00,64.2,28.6,29.82,West,270,5.6,8.1,26,0.00,,SKC,0.00,VWS V14.00,2013-06-25 03:34:00,
2013-06-24 20:35:00,64.2,28.6,29.82,WNW,292,5.4,8.1,26,0.00,,SKC,0.00,VWS V14.00,2013-06-25 03:35:00,
2013-06-24 20:36:00,64.2,28.6,29.82,WNW,292,6.0,6.0,26,0.00,,SKC,0.00,VWS V14.00,2013-06-25 03:36:00,
2013-06-24 20:37:00,64.2,28.6,29.82,WNW,292,6.5,7.2,26,0.00,,SKC,0.00,VWS V14.00,2013-06-25 03:37:00,
2013-06-24 20:39:00,64.2,28.6,29.82,NW,315,7.4,7.4,26,0.00,,SKC,0.00,VWS V14.00,2013-06-25 03:39:00,
2013-06-24 20:40:00,64.0,28.5,29.82,WNW,292,8.7,8.7,26,0.00,,SKC,0.00,VWS V14.00,2013-06-25 03:40:00,
2013-06-24 20:42:00,64.0,28.5,29.82,WNW,292,8.5,8.7,26,0.00,,SKC,0.00,VWS V14.00,2013-06-25 03:42:00,
2013-06-24 20:43:00,64.0,28.5,29.82,WNW,292,9.8,9.8,26,0.00,,SKC,0.00,VWS V14.00,2013-06-25 03:43:00,
2013-06-24 20:44:00,64.0,28.5,29.82,WNW,292,8.5,9.8,26,0.00,,SKC,0.00,VWS V14.00,2013-06-25 03:44:00,
2013-06-24 20:45:00,64.0,28.5,29.82,West,270,6.5,9.8,26,0.00,,SKC,0.00,VWS V14.00,2013-06-25 03:45:00,
2013-06-24 20:47:00,64.0,28.5,29.82,WNW,292,5.4,7.6,26,0.00,,SKC,0.00,VWS V14.00,2013-06-25 03:47:00,
2013-06-24 20:48:00,63.9,28.3,29.82,WNW,292,7.4,8.7,26,0.00,,SKC,0.00,VWS V14.00,2013-06-25 03:48:00,
2013-06-24 20:49:00,63.9,28.3,29.82,WNW,292,6.3,8.7,26,0.00,,SKC,0.00,VWS V14.00,2013-06-25 03:49:00,
2013-06-24 20:53:00,63.9,28.3,29.82,WNW,292,7.8,8.7,26,0.00,,SKC,0.00,VWS V14.00,2013-06-25 03:53:00,
2013-06-24 20:54:00,63.9,28.3,29.82,WNW,292,8.5,8.7,26,0.00,,SKC,0.00,VWS V14.00,2013-06-25 03:54:00,
2013-06-24 20:55:00,63.7,28.2,29.82,WNW,292,6.3,8.7,26,0.00,,SKC,0.00,VWS V14.00,2013-06-25 03:55:00,
2013-06-24 20:59:00,63.7,28.2,29.79,West,270,6.0,6.9,26,0.00,,SKC,0.00,VWS V14.00,2013-06-25 03:59:00,
2013-06-24 21:00:00,63.7,28.2,29.79,WNW,292,3.8,6.9,26,0.00,,SKC,0.00,VWS V14.00,2013-06-25 04:00:00,
2013-06-24 21:01:00,63.7,28.2,29.79,WNW,292,3.8,6.9,26,0.00,,SKC,0.00,VWS V14.00,2013-06-25 04:01:00,
2013-06-24 21:05:00,63.5,28.0,29.79,WSW,248,3.6,6.5,26,0.00,,SKC,0.00,VWS V14.00,2013-06-25 04:05:00,
2013-06-24 21:06:00,63.5,28.0,29.79,West,270,2.9,3.6,26,0.00,,SKC,0.00,VWS V14.00,2013-06-25 04:06:00,
2013-06-24 21:10:00,63.3,28.8,29.79,SW,225,0.0,4.7,27,0.00,,SKC,0.00,VWS V14.00,2013-06-25 04:10:00,
2013-06-24 21:11:00,63.3,28.8,29.79,South,180,3.1,3.1,27,0.00,,SKC,0.00,VWS V14.00,2013-06-25 04:11:00,
2013-06-24 21:15:00,62.4,37.8,29.82,SE,135,3.6,6.0,40,0.00,,SKC,0.00,VWS V14.00,2013-06-25 04:15:00,
2013-06-24 21:16:00,62.4,37.8,29.82,SSE,158,2.7,3.6,40,0.00,,SKC,0.00,VWS V14.00,2013-06-25 04:16:00,
2013-06-24 21:20:00,61.9,39.8,29.82,SSW,202,1.3,5.6,44,0.00,,SKC,0.00,VWS V14.00,2013-06-25 04:20:00,
2013-06-24 21:21:00,61.9,39.8,29.82,South,180,3.4,3.4,44,0.00,,SKC,0.00,VWS V14.00,2013-06-25 04:21:00,
2013-06-24 21:22:00,61.7,39.6,29.82,South,180,3.8,3.8,44,0.00,,SKC,0.00,VWS V14.00,2013-06-25 04:22:00,
2013-06-24 21:25:00,61.5,40.0,29.82,SSW,202,3.1,3.8,45,0.00,,SKC,0.00,VWS V14.00,2013-06-25 04:25:00,
2013-06-24 21:26:00,61.3,39.3,29.82,SSW,202,2.5,3.1,44,0.00,,SKC,0.00,VWS V14.00,2013-06-25 04:26:00,
2013-06-24 21:27:00,61.3,39.3,29.82,SSW,202,2.0,3.1,44,0.00,,SKC,0.00,VWS V14.00,2013-06-25 04:27:00,
2013-06-24 21:30:00,61.3,38.7,29.82,East,90,3.6,3.6,43,0.00,,SKC,0.00,VWS V14.00,2013-06-25 04:30:00,
2013-06-24 21:31:00,61.3,38.7,29.82,East,90,3.6,3.6,43,0.00,,SKC,0.00,VWS V14.00,2013-06-25 04:31:00,
2013-06-24 21:32:00,61.3,38.7,29.82,SE,135,4.9,4.9,43,0.00,,SKC,0.00,VWS V14.00,2013-06-25 04:32:00,
2013-06-24 21:35:00,61.0,41.2,29.82,SE,135,6.0,7.4,48,0.00,,SKC,0.00,VWS V14.00,2013-06-25 04:35:00,
2013-06-24 21:36:00,61.0,41.2,29.82,SE,135,7.4,7.4,48,0.00,,SKC,0.00,VWS V14.00,2013-06-25 04:36:00,
2013-06-24 21:37:00,61.0,41.2,29.82,SE,135,7.4,7.4,48,0.00,,SKC,0.00,VWS V14.00,2013-06-25 04:37:00,
2013-06-24 21:40:00,60.8,39.9,29.82,SE,135,4.7,7.6,46,0.00,,SKC,0.00,VWS V14.00,2013-06-25 04:40:00,
2013-06-24 21:41:00,60.8,39.9,29.82,ESE,112,4.0,4.7,46,0.00,,SKC,0.00,VWS V14.00,2013-06-25 04:41:00,
2013-06-24 21:42:00,60.8,38.8,29.82,SE,135,1.6,4.7,44,0.00,,SKC,0.00,VWS V14.00,2013-06-25 04:42:00,
2013-06-24 21:43:00,60.8,38.8,29.82,South,180,2.7,4.7,44,0.00,,SKC,0.00,VWS V14.00,2013-06-25 04:43:00,
2013-06-24 21:45:00,61.0,39.5,29.82,SE,135,2.9,4.7,45,0.00,,SKC,0.00,VWS V14.00,2013-06-25 04:45:00,
2013-06-24 21:47:00,60.8,39.3,29.82,SE,135,3.4,3.4,45,0.00,,SKC,0.00,VWS V14.00,2013-06-25 04:47:00,
2013-06-24 21:48:00,60.8,39.3,29.82,South,180,3.8,3.8,45,0.00,,SKC,0.00,VWS V14.00,2013-06-25 04:48:00,
2013-06-24 21:50:00,61.0,37.1,29.82,SW,225,4.3,7.4,41,0.00,,SKC,0.00,VWS V14.00,2013-06-25 04:50:00,
2013-06-24 21:52:00,61.2,36.7,29.82,South,180,4.7,4.7,40,0.00,,SKC,0.00,VWS V14.00,2013-06-25 04:52:00,
2013-06-24 21:53:00,61.2,36.7,29.82,South,180,4.7,4.7,40,0.00,,SKC,0.00,VWS V14.00,2013-06-25 04:53:00,
2013-06-24 21:55:00,61.0,39.5,29.82,SSE,158,3.1,4.9,45,0.00,,SKC,0.00,VWS V14.00,2013-06-25 04:55:00,
2013-06-24 21:57:00,60.8,39.3,29.82,SSE,158,3.1,3.4,45,0.00,,SKC,0.00,VWS V14.00,2013-06-25 04:57:00,
2013-06-24 21:58:00,60.8,39.3,29.82,SSE,158,1.6,3.4,45,0.00,,SKC,0.00,VWS V14.00,2013-06-25 04:58:00,
2013-06-24 22:00:00,60.4,39.0,29.82,SSE,158,0.0,3.4,45,0.00,,SKC,0.00,VWS V14.00,2013-06-25 05:00:00,
2013-06-24 22:02:00,60.4,39.0,29.82,SE,135,1.1,2.2,45,0.00,,SKC,0.00,VWS V14.00,2013-06-25 05:02:00,
2013-06-24 22:03:00,60.4,39.0,29.82,SE,135,1.1,2.2,45,0.00,,SKC,0.00,VWS V14.00,2013-06-25 05:03:00,
2013-06-24 22:05:00,60.1,38.7,29.82,SE,135,0.9,2.2,45,0.00,,SKC,0.00,VWS V14.00,2013-06-25 05:05:00,
2013-06-24 22:07:00,60.1,38.7,29.82,SE,135,0.0,1.6,45,0.00,,SKC,0.00,VWS V14.00,2013-06-25 05:07:00,
2013-06-24 22:08:00,60.1,38.7,29.82,SE,135,0.0,1.6,45,0.00,,SKC,0.00,VWS V14.00,2013-06-25 05:08:00,
2013-06-24 22:10:00,60.1,38.7,29.82,East,90,1.6,2.0,45,0.00,,SKC,0.00,VWS V14.00,2013-06-25 05:10:00,
2013-06-24 22:12:00,60.1,38.7,29.82,South,180,0.0,1.6,45,0.00,,SKC,0.00,VWS V14.00,2013-06-25 05:12:00,
2013-06-24 22:13:00,60.1,39.2,29.79,South,180,2.9,3.1,46,0.00,,SKC,0.00,VWS V14.00,2013-06-25 05:13:00,
2013-06-24 22:17:00,60.1,38.7,29.79,SSW,202,0.0,3.1,45,0.00,,SKC,0.00,VWS V14.00,2013-06-25 05:17:00,
2013-06-24 22:18:00,59.9,38.5,29.79,WSW,248,0.0,3.1,45,0.00,,SKC,0.00,VWS V14.00,2013-06-25 05:18:00,
2013-06-24 22:19:00,59.9,38.5,29.79,WSW,248,0.0,3.1,45,0.00,,SKC,0.00,VWS V14.00,2013-06-25 05:19:00,
2013-06-24 22:20:00,59.9,38.5,29.79,WSW,248,0.0,3.1,45,0.00,,SKC,0.00,VWS V14.00,2013-06-25 05:20:00,
2013-06-24 22:22:00,59.9,38.0,29.79,WSW,248,0.0,0.0,44,0.00,,SKC,0.00,VWS V14.00,2013-06-25 05:22:00,
2013-06-24 22:23:00,59.9,38.0,29.79,WSW,248,0.0,0.0,44,0.00,,SKC,0.00,VWS V14.00,2013-06-25 05:23:00,
2013-06-24 22:24:00,59.9,38.0,29.79,WSW,248,0.0,0.0,44,0.00,,SKC,0.00,VWS V14.00,2013-06-25 05:24:00,
2013-06-24 22:25:00,59.9,38.0,29.79,WSW,248,0.0,0.0,44,0.00,,SKC,0.00,VWS V14.00,2013-06-25 05:25:00,
2013-06-24 22:27:00,59.7,37.8,29.79,WSW,248,0.0,0.0,44,0.00,,SKC,0.00,VWS V14.00,2013-06-25 05:27:00,
2013-06-24 22:28:00,59.7,37.8,29.79,WSW,248,0.0,0.0,44,0.00,,SKC,0.00,VWS V14.00,2013-06-25 05:28:00,
2013-06-24 22:29:00,59.7,37.8,29.79,WSW,248,0.0,0.0,44,0.00,,SKC,0.00,VWS V14.00,2013-06-25 05:29:00,
2013-06-24 22:30:00,59.7,37.8,29.79,WSW,248,0.0,0.0,44,0.00,,SKC,0.00,VWS V14.00,2013-06-25 05:30:00,
2013-06-24 22:32:00,59.9,38.0,29.82,WSW,248,0.0,0.0,44,0.00,,SKC,0.00,VWS V14.00,2013-06-25 05:32:00,
2013-06-24 22:33:00,59.9,38.0,29.82,WSW,248,0.0,0.0,44,0.00,,SKC,0.00,VWS V14.00,2013-06-25 05:33:00,
2013-06-24 22:34:00,59.7,37.2,29.82,WSW,248,0.0,0.0,43,0.00,,SKC,0.00,VWS V14.00,2013-06-25 05:34:00,
2013-06-24 22:35:00,59.7,37.2,29.82,WSW,248,0.0,0.0,43,0.00,,SKC,0.00,VWS V14.00,2013-06-25 05:35:00,
2013-06-24 22:38:00,59.7,36.6,29.82,WSW,248,0.0,0.0,42,0.00,,SKC,0.00,VWS V14.00,2013-06-25 05:38:00,
2013-06-24 22:39:00,59.7,37.2,29.82,East,90,2.0,2.0,43,0.00,,SKC,0.00,VWS V14.00,2013-06-25 05:39:00,
2013-06-24 22:40:00,59.7,38.4,29.82,East,90,2.7,2.7,45,0.00,,SKC,0.00,VWS V14.00,2013-06-25 05:40:00,
2013-06-24 22:43:00,59.7,38.4,29.82,East,90,1.3,3.6,45,0.00,,SKC,0.00,VWS V14.00,2013-06-25 05:43:00,
2013-06-24 22:44:00,59.7,38.4,29.82,ESE,112,0.0,3.6,45,0.00,,SKC,0.00,VWS V14.00,2013-06-25 05:44:00,
2013-06-24 22:45:00,59.7,38.4,29.82,ESE,112,0.0,3.6,45,0.00,,SKC,0.00,VWS V14.00,2013-06-25 05:45:00,
2013-06-24 22:48:00,59.4,38.6,29.82,East,90,1.3,3.6,46,0.00,,SKC,0.00,VWS V14.00,2013-06-25 05:48:00,
2013-06-24 22:49:00,59.4,38.6,29.82,SE,135,0.0,3.6,46,0.00,,SKC,0.00,VWS V14.00,2013-06-25 05:49:00,
2013-06-24 22:50:00,59.4,39.2,29.82,ESE,112,1.6,3.6,47,0.00,,SKC,0.00,VWS V14.00,2013-06-25 05:50:00,
2013-06-24 22:53:00,59.4,39.7,29.82,East,90,3.6,3.6,48,0.00,,SKC,0.00,VWS V14.00,2013-06-25 05:53:00,
2013-06-24 22:54:00,59.4,39.7,29.82,East,90,3.6,3.6,48,0.00,,SKC,0.00,VWS V14.00,2013-06-25 05:54:00,
2013-06-24 22:55:00,59.4,39.7,29.82,East,90,3.4,3.6,48,0.00,,SKC,0.00,VWS V14.00,2013-06-25 05:55:00,
2013-06-24 22:58:00,59.2,42.1,29.82,East,90,2.7,2.9,53,0.00,,SKC,0.00,VWS V14.00,2013-06-25 05:58:00,
2013-06-24 22:59:00,59.2,42.1,29.82,East,90,2.7,2.9,53,0.00,,SKC,0.00,VWS V14.00,2013-06-25 05:59:00,
2013-06-24 23:00:00,59.2,42.1,29.82,East,90,2.7,2.9,53,0.00,,SKC,0.00,VWS V14.00,2013-06-25 06:00:00,
2013-06-24 23:04:00,59.2,42.1,29.82,ESE,112,3.8,4.7,53,0.00,,SKC,0.00,VWS V14.00,2013-06-25 06:04:00,
2013-06-24 23:05:00,59.2,42.1,29.82,ESE,112,5.4,5.4,53,0.00,,SKC,0.00,VWS V14.00,2013-06-25 06:05:00,
2013-06-24 23:09:00,59.2,42.1,29.82,SE,135,4.9,6.0,53,0.00,,SKC,0.00,VWS V14.00,2013-06-25 06:09:00,
2013-06-24 23:10:00,59.2,42.1,29.82,SE,135,4.9,6.0,53,0.00,,SKC,0.00,VWS V14.00,2013-06-25 06:10:00,
2013-06-24 23:14:00,59.2,42.1,29.82,SE,135,2.5,3.6,53,0.00,,SKC,0.00,VWS V14.00,2013-06-25 06:14:00,
2013-06-24 23:15:00,59.0,41.9,29.82,SE,135,2.7,3.6,53,0.00,,SKC,0.00,VWS V14.00,2013-06-25 06:15:00,
2013-06-24 23:16:00,59.0,41.9,29.82,SE,135,2.9,3.6,53,0.00,,SKC,0.00,VWS V14.00,2013-06-25 06:16:00,
2013-06-24 23:19:00,59.0,41.9,29.82,SE,135,3.4,3.8,53,0.00,,SKC,0.00,VWS V14.00,2013-06-25 06:19:00,
2013-06-24 23:20:00,59.0,42.4,29.82,SE,135,3.6,3.8,54,0.00,,SKC,0.00,VWS V14.00,2013-06-25 06:20:00,
2013-06-24 23:21:00,59.0,42.4,29.82,SE,135,4.9,4.9,54,0.00,,SKC,0.00,VWS V14.00,2013-06-25 06:21:00,
2013-06-24 23:24:00,59.0,42.4,29.82,SE,135,2.0,6.0,54,0.00,,SKC,0.00,VWS V14.00,2013-06-25 06:24:00,
2013-06-24 23:25:00,59.0,42.4,29.82,SE,135,1.3,6.0,54,0.00,,SKC,0.00,VWS V14.00,2013-06-25 06:25:00,
2013-06-24 23:26:00,58.8,41.7,29.82,South,180,2.5,2.5,53,0.00,,SKC,0.00,VWS V14.00,2013-06-25 06:26:00,
2013-06-24 23:30:00,58.8,41.7,29.82,SSE,158,0.0,3.1,53,0.00,,SKC,0.00,VWS V14.00,2013-06-25 06:30:00,
2013-06-24 23:31:00,58.8,41.7,29.82,SSE,158,0.0,0.0,53,0.00,,SKC,0.00,VWS V14.00,2013-06-25 06:31:00,
2013-06-24 23:35:00,58.8,41.7,29.82,SSE,158,0.0,0.9,53,0.00,,SKC,0.00,VWS V14.00,2013-06-25 06:35:00,
2013-06-24 23:36:00,58.8,41.7,29.82,SSE,158,0.0,0.9,53,0.00,,SKC,0.00,VWS V14.00,2013-06-25 06:36:00,
2013-06-24 23:40:00,58.6,41.1,29.82,SSE,158,1.3,2.5,52,0.00,,SKC,0.00,VWS V14.00,2013-06-25 06:40:00,
2013-06-24 23:41:00,58.6,41.1,29.82,SSE,158,0.9,1.3,52,0.00,,SKC,0.00,VWS V14.00,2013-06-25 06:41:00,
2013-06-24 23:45:00,58.6,41.6,29.82,East,90,2.0,2.0,53,0.00,,SKC,0.00,VWS V14.00,2013-06-25 06:45:00,
2013-06-24 23:46:00,58.6,41.6,29.82,East,90,5.4,5.4,53,0.00,,SKC,0.00,VWS V14.00,2013-06-25 06:46:00,
2013-06-24 23:50:00,59.0,41.4,29.82,ESE,112,2.5,3.4,52,0.00,,SKC,0.00,VWS V14.00,2013-06-25 06:50:00,
2013-06-24 23:51:00,59.0,41.4,29.82,ESE,112,2.5,3.4,52,0.00,,SKC,0.00,VWS V14.00,2013-06-25 06:51:00,
2013-06-24 23:55:00,59.0,41.4,29.82,ESE,112,1.3,2.9,52,0.00,,SKC,0.00,VWS V14.00,2013-06-25 06:55:00,
2013-06-24 23:56:00,59.0,41.4,29.82,East,90,0.9,2.9,52,0.00,,SKC,0.00,VWS V14.00,2013-06-25 06:56:00,
2013-06-24 23:57:00,59.0,41.4,29.82,East,90,2.9,2.9,52,0.00,,SKC,0.00,VWS V14.00,2013-06-25 06:57:00,